GFSMA_2pvu_pres_009.txt.gz
Presure
246 229 222 224 225 218 226 212 195 201 195 211 194 185 174 176 174 179 184 163 170 183 198 189 183 194 177 170 179 177 186 208 222 207 202 218 191 222 225 218 212 210 217
237 253 253 251 225 214 229 219 208 201 192 197 194 203 174 181 183 185 180 186 180 193 193 183 176 180 186 174 187 179 175 201 208 178 210 180 194 219 216 194 212 217 207
246 240 227 235 240 236 264 217 226 197 202 190 196 185 184 194 170 172 182 181 189 183 192 188 180 187 175 193 166 213 178 195 192 189 236 175 206 205 215 203 198 201 204
213 204 209 215 191 221 223 259 232 248 218 193 210 182 181 189 184 191 189 173 180 183 189 201 179 181 191 192 185 177 190 182 173 193 180 193 200 221 215 205 199 207 198
183 201 225 193 228 229 239 237 243 253 252 267 193 208 189 217 196 177 188 196 182 194 184 180 194 187 172 176 192 185 181 182 207 203 175 172 191 216 219 208 208 203 202
216 217 218 207 213 228 206 202 240 226 238 262 270 228 195 184 242 193 220 189 191 188 185 190 191 174 177 177 178 181 173 180 169 169 191 207 208 210 172 211 212 208 200
187 201 214 215 225 229 233 222 180 249 240 229 229 264 276 204 219 248 233 228 206 193 191 182 184 184 189 173 189 184 176 182 218 175 172 171 177 174 168 223 204 208 202
204 205 204 210 209 217 218 226 236 245 235 238 243 210 268 279 205 221 239 228 224 223 197 218 202 189 189 184 183 185 193 183 209 205 174 198 197 173 181 183 204 206 197
194 201 204 209 223 218 223 238 245 246 240 264 246 240 224 269 291 199 212 239 222 218 227 204 193 192 196 195 195 184 168 171 198 198 210 197 163 196 171 183 170 191 198
194 199 205 208 212 235 219 236 228 236 249 261 255 253 247 261 276 301 290 214 237 224 218 219 226 219 202 199 199 174 207 208 210 215 209 206 194 207 187 182 195 194 204
196 194 207 211 220 234 234 244 250 242 271 273 309 332 335 252 286 318 295 282 218 238 226 215 217 214 214 214 219 195 203 220 201 202 202 192 187 179 178 186 168 184 214
208 200 201 208 224 255 261 252 255 254 294 310 348 385 325 320 298 316 313 290 264 226 238 223 216 214 217 214 210 208 205 204 201 201 186 196 194 168 182 164 184 183 179
210 219 205 215 234 271 278 258 267 289 371 383 377 373 367 372 332 330 314 172 241 268 239 231 215 217 211 217 212 215 217 212 204 202 199 192 175 197 185 195 196 186 173
212 225 225 221 261 290 271 263 282 363 366 361 347 345 352 357 356 352 326 315 303 285 277 242 230 221 224 214 214 212 204 196 194 197 192 187 193 180 204 171 176 190 187
201 223 228 243 293 283 277 286 326 312 346 318 336 334 333 332 342 344 347 325 308 303 279 275 282 230 230 233 219 211 211 214 213 208 181 209 195 180 175 191 187 185 176
225 232 239 253 303 286 306 359 364 350 336 332 325 321 319 325 330 335 339 341 327 303 302 274 274 285 235 233 231 218 205 203 204 208 213 194 203 202 166 203 176 190 187
238 237 245 307 304 316 370 362 348 340 332 325 319 320 317 318 319 321 327 332 340 341 315 295 284 282 288 272 229 230 228 218 220 223 226 225 220 190 177 207 197 195 211
243 243 266 309 320 363 360 346 340 335 328 320 316 316 316 320 323 323 320 324 329 340 328 295 274 316 276 244 289 249 237 229 225 213 205 217 217 211 213 208 199 182 170
272 246 330 347 365 358 350 337 331 322 318 316 320 322 321 325 330 331 336 339 332 333 336 340 326 308 263 304 295 261 292 250 237 223 218 215 207 208 227 214 185 186 211
266 332 342 310 316 347 334 326 324 324 330 338 341 344 345 352 344 347 350 347 346 345 345 349 345 334 332 316 308 309 310 280 303 278 236 217 218 218 211 219 202 195 199
340 376 306 269 342 337 333 332 338 347 335 333 339 346 372 383 389 384 383 384 392 388 371 346 349 350 345 338 336 333 336 334 329 330 322 310 228 221 213 211 205 202 174
322 302 285 317 337 336 339 357 332 337 347 395 317 388 463 471 470 468 458 460 461 464 403 362 380 394 356 343 345 341 336 332 335 332 334 330 327 283 229 221 202 197 203
293 285 310 341 342 356 330 328 351 370 353 462 458 435 416 406 400 402 400 401 402 404 412 412 435 416 346 356 331 364 339 275 184 331 337 284 333 322 328 271 232 196 212
306 345 342 349 351 334 333 356 312 467 442 414 408 399 386 377 364 372 369 365 364 363 365 367 381 388 395 264 290 337 349 369 269 336 222 138 332 345 326 330 331 284 235
347 342 347 347 340 338 327 335 447 416 372 356 346 346 345 343 346 348 356 349 352 358 358 342 354 356 364 372 376 385 342 405 410 349 367 384 340 245 338 342 262 329 313
346 346 344 335 343 315 379 417 404 360 339 334 331 331 333 337 338 340 343 343 345 333 344 343 349 354 349 353 189 360 368 376 391 397 420 438 481 387 398 345 349 346 337

GFSMA_2pvu_pres_012.txt.gz
Presure
227 226 226 218 236 252 271 222 218 232 223 211 214 208 201 192 185 189 190 190 179 185 184 186 193 192 175 175 173 185 183 156 163 176 162 176 159 183 202 189 199 206 169
197 200 216 215 231 234 237 231 246 256 236 215 213 211 204 194 201 189 176 187 184 184 188 198 194 199 177 173 159 184 180 185 182 178 161 168 207 182 201 206 204 189 195
187 200 211 196 207 211 208 231 242 229 223 243 229 200 204 226 205 194 192 194 182 181 186 172 202 185 194 185 182 184 193 183 183 184 182 177 172 208 178 172 165 189 178
206 206 206 202 174 210 222 208 205 227 241 239 203 225 195 201 197 215 189 198 183 193 189 182 192 187 182 187 179 181 185 174 192 193 155 199 171 188 199 206 167 187 189
203 203 203 182 203 207 209 215 213 220 225 222 218 241 255 258 195 198 226 201 184 183 185 190 182 178 177 173 175 190 173 188 183 195 193 184 168 196 208 173 179 174 169
196 194 197 192 197 198 204 209 212 210 227 215 242 236 219 250 242 193 200 205 231 200 196 190 188 183 171 172 184 185 188 182 180 189 159 158 204 188 193 194 180 166 171
192 200 198 194 199 202 203 196 204 216 219 227 221 248 232 247 241 257 241 186 198 190 235 238 204 195 194 192 183 193 183 193 180 178 205 189 180 174 169 194 182 187 200
193 189 190 192 192 194 202 206 205 205 213 220 231 254 242 238 242 240 251 267 249 192 194 241 225 178 180 183 210 187 186 181 198 187 186 193 180 193 186 184 184 172 162
191 191 191 192 204 202 202 202 212 213 223 215 228 259 289 239 249 240 243 240 269 263 239 193 215 233 210 201 180 231 199 192 193 201 180 185 184 174 171 183 182 194 188
185 192 194 200 204 206 205 212 213 214 233 227 245 256 300 297 261 254 250 259 252 274 260 241 202 192 198 229 225 196 207 213 203 193 179 177 181 190 178 157 178 188 165
195 189 192 201 208 206 215 216 221 215 229 235 234 262 296 281 281 265 267 263 282 260 271 257 253 297 204 219 228 230 226 200 194 189 214 223 184 178 184 183 164 193 164
195 197 195 199 210 206 220 220 220 233 242 255 252 318 306 288 280 288 330 300 289 295 289 295 237 260 287 209 222 223 226 235 222 226 208 215 213 195 182 178 161 163 215
194 199 195 198 216 216 233 239 226 254 266 271 277 320 317 318 369 378 394 382 392 389 328 319 267 255 301 254 222 212 226 228 217 215 219 207 210 197 170 200 202 207 223
206 208 193 205 221 233 240 243 258 277 266 280 329 330 358 385 386 370 357 361 357 367 377 317 309 272 258 300 248 216 213 218 208 214 216 216 211 210 198 202 200 163 198
223 227 230 234 245 255 267 266 272 267 284 334 383 384 379 369 362 354 332 341 345 350 363 356 298 299 268 304 294 250 238 207 215 223 208 208 214 212 204 201 202 177 196
231 239 247 243 252 263 279 277 286 301 338 362 309 340 356 348 344 345 336 335 336 343 338 352 319 306 295 299 172 294 250 225 230 211 209 211 204 210 206 205 204 203 199
253 252 252 273 307 284 329 331 331 373 329 306 268 347 341 336 331 330 327 326 324 331 332 329 343 314 293 291 296 300 291 248 223 219 209 211 211 207 201 203 202 201 203
283 339 334 336 332 332 334 351 318 314 303 273 346 343 333 331 332 328 330 327 324 323 334 335 332 335 315 307 290 298 294 290 245 226 219 216 217 219 210 207 195 190 192
335 341 336 331 321 311 306 305 291 290 284 345 334 333 331 331 331 331 332 332 328 322 322 332 335 327 325 318 300 291 296 294 294 251 230 224 218 217 217 217 215 206 201
314 285 301 297 291 281 269 330 318 347 339 335 337 340 348 357 365 358 354 356 356 359 353 343 330 330 327 325 316 306 294 296 298 293 293 238 228 225 219 226 221 214 204
282 288 287 264 287 310 301 357 349 345 346 354 352 334 337 345 355 390 391 392 364 360 356 353 353 352 332 330 330 311 304 299 295 298 294 291 303 286 225 218 216 224 227
268 263 282 320 322 368 359 351 352 352 351 334 332 383 323 322 471 474 474 480 486 487 497 368 381 398 353 357 345 338 325 304 304 296 299 295 289 299 297 231 222 216 222
269 282 368 375 364 351 351 353 354 338 327 359 315 464 439 424 421 415 413 413 409 408 413 424 435 417 395 380 355 355 345 340 314 310 310 304 291 290 301 305 250 221 216
282 390 374 360 350 350 353 346 330 342 316 359 420 384 370 361 361 359 359 360 359 361 372 381 385 399 409 432 415 377 348 354 347 329 308 302 302 315 317 307 310 310 231
389 372 357 351 351 349 343 327 352 307 438 388 361 354 349 339 343 339 345 345 347 347 361 363 359 368 381 383 402 428 228 324 340 324 348 334 322 249 310 315 312 310 312
370 352 351 346 349 344 320 350 307 434 377 350 343 337 344 358 360 368 366 361 349 346 346 345 349 352 374 368 370 383 402 387 360 374 322 320 279 344 332 317 314 322 326

GFSMA_2pvu_pres_018.txt.gz
Presure
195 201 198 200 200 196 194 208 205 212 199 209 217 219 226 206 223 214 209 216 203 211 186 198 193 203 219 192 189 191 184 181 214 172 196 174 175 187 188 208 184 201 188
197 197 201 197 194 191 192 195 197 197 197 207 201 202 209 217 225 218 228 225 221 194 196 199 181 190 189 228 213 194 127 193 166 176 175 209 167 170 163 175 195 174 183
184 185 185 188 193 195 197 195 191 201 198 202 192 195 197 202 201 219 221 224 212 218 204 206 192 191 185 180 192 208 210 211 180 201 203 198 181 193 180 164 159 192 178
187 183 183 184 183 183 186 189 192 195 198 200 202 192 195 196 197 205 196 220 225 209 229 220 191 201 193 185 184 181 159 186 226 164 186 188 185 174 184 176 157 160 171
180 180 175 176 182 182 184 185 186 191 190 191 195 199 195 199 197 198 201 212 211 215 210 216 214 195 191 191 194 190 193 202 185 182 166 177 188 181 178 171 170 173 175
160 184 190 183 185 174 176 175 176 180 181 185 193 194 192 194 196 200 202 219 214 208 210 218 236 221 210 196 184 191 190 191 167 186 181 178 171 191 194 162 171 157 168
185 194 191 196 200 197 173 191 195 198 189 179 180 184 188 199 201 195 188 203 206 222 214 207 223 217 234 219 217 202 181 190 167 183 192 171 179 194 190 152 200 170 201
188 158 142 202 202 202 167 203 206 197 197 201 206 204 207 195 195 200 202 202 194 203 212 216 211 208 224 228 233 220 215 204 188 189 189 180 193 188 164 184 177 168 197
184 170 169 162 204 176 193 210 223 230 228 218 206 211 202 204 200 202 201 200 205 203 205 210 214 222 243 221 228 228 235 239 224 206 195 192 191 181 200 190 161 194 204
187 137 206 160 145 228 220 226 230 234 231 231 228 228 230 238 233 236 237 233 234 236 241 234 211 218 243 241 218 227 233 230 249 224 222 200 188 171 190 190 188 193 187
211 217 221 225 206 224 100 233 229 243 229 249 251 260 261 259 241 250 248 246 245 249 249 252 241 248 242 248 241 245 250 235 230 245 235 217 216 202 187 193 187 177 191
212 214 213 214 229 236 227 239 291 289 280 269 250 288 296 269 262 264 272 264 261 269 260 262 273 257 240 256 264 263 260 275 249 242 246 255 213 217 214 205 197 193 194
218 216 216 236 256 246 286 225 271 301 293 284 288 316 333 327 362 347 314 306 290 278 257 264 270 276 269 267 278 291 271 265 252 305 252 251 254 217 208 208 205 198 200
219 218 282 288 305 293 290 278 290 302 311 292 282 285 297 302 306 305 318 341 370 376 344 316 275 271 284 292 306 297 281 264 269 250 294 239 252 254 221 217 207 202 204
256 260 271 304 303 304 293 286 296 305 281 269 282 284 295 254 271 313 309 308 314 316 318 346 356 341 324 321 318 325 324 286 258 325 313 265 237 262 243 226 226 212 205
258 295 298 314 308 306 297 301 301 289 259 263 267 283 295 290 275 269 276 281 296 294 285 284 304 305 317 340 364 342 343 349 354 352 320 301 254 243 248 240 234 216 214
301 304 316 311 303 288 295 274 277 269 257 261 259 267 271 264 285 306 296 269 280 297 339 297 322 281 292 298 301 337 384 380 384 352 338 308 271 245 249 243 231 231 226
316 317 315 291 278 269 274 277 274 267 264 256 270 271 277 282 289 282 277 281 390 393 396 264 376 380 365 350 293 299 292 299 374 382 352 302 264 264 259 234 241 230 230
318 282 277 286 301 328 373 386 397 379 369 421 413 362 322 307 300 296 380 377 371 373 371 373 366 361 361 354 342 349 353 354 359 368 380 390 285 255 255 266 230 238 233
281 323 341 386 421 386 432 418 418 410 406 397 393 386 382 372 372 367 364 358 357 360 363 368 369 364 366 361 350 338 339 344 345 354 365 270 383 285 273 256 257 232 237
346 426 406 395 382 406 399 409 404 398 395 387 378 370 365 361 359 362 361 358 362 351 341 337 337 336 340 340 359 363 344 340 341 344 356 360 368 379 280 267 259 257 243
392 399 387 397 409 393 398 396 387 386 377 370 361 351 351 350 352 363 361 335 327 348 332 333 469 461 379 338 347 341 382 351 341 340 342 350 356 360 377 334 274 258 258
411 405 415 410 397 395 386 381 379 373 367 353 348 349 347 351 353 333 336 325 398 380 374 370 369 373 386 431 446 402 379 373 353 344 345 340 351 353 363 383 305 282 254
420 412 404 402 393 383 379 372 366 359 347 341 348 345 348 337 330 320 383 365 361 362 369 373 362 350 350 364 396 422 447 481 360 354 347 342 345 351 319 368 334 288 286
391 387 383 377 369 362 363 364 353 344 339 347 348 354 318 326 368 369 340 326 323 330 336 336 340 367 366 353 359 377 403 422 375 357 357 343 342 345 350 351 362 320 279
367 362 359 359 360 358 354 348 341 337 337 343 354 316 324 355 348 328 316 311 327 317 330 326 354 326 340 383 362 354 368 389 404 428 346 361 343 341 344 353 354 336 321

GFSMA_2pvu_pres_021.txt.gz
Presure
169 183 191 197 196 188 191 186 190 187 188 181 195 205 208 206 221 236 238 220 229 218 213 218 203 202 215 200 192 195 186 187 182 194 188 184 192 186 209 191 184 184 172
184 184 175 184 183 185 189 190 190 188 186 185 190 193 195 194 200 205 214 229 226 223 214 207 206 205 172 199 203 200 188 190 184 185 183 194 180 170 173 182 200 196 189
176 180 178 182 180 171 181 187 187 180 183 183 187 185 184 190 195 194 198 205 210 230 244 227 206 200 198 199 192 196 201 192 188 198 188 185 181 189 179 166 182 175 195
186 187 182 181 185 186 183 188 184 186 182 183 181 179 181 184 193 194 195 196 200 201 210 229 239 230 202 192 193 192 209 193 186 179 194 188 185 181 183 188 189 205 177
182 179 180 165 177 190 185 193 193 192 200 197 182 170 188 188 181 180 190 195 194 189 193 200 211 230 238 207 195 190 191 194 201 198 189 191 195 183 191 176 172 180 173
180 164 184 191 184 166 183 189 194 193 197 197 200 201 185 193 195 190 182 180 186 196 195 193 194 208 223 239 204 199 194 192 199 202 201 204 176 200 184 174 190 175 196
137 132 153 191 193 202 175 175 163 208 210 212 229 222 201 205 196 201 194 195 189 188 195 201 193 194 196 213 232 223 203 193 193 190 186 208 171 193 203 211 190 190 211
188 192 186 203 167 196 177 194 217 212 202 172 218 216 231 225 223 227 224 220 207 207 195 194 196 198 194 199 213 220 236 241 198 174 197 190 181 171 195 191 198 168 200
145 192 150 207 213 216 214 208 211 217 219 178 188 184 227 248 238 233 230 230 233 230 211 209 195 198 200 193 199 211 214 228 236 210 197 203 167 163 195 199 196 208 202
204 212 218 217 191 213 216 225 216 239 227 227 242 252 260 277 262 233 240 238 243 233 235 230 214 205 202 201 204 194 204 218 218 235 236 206 199 150 195 195 176 163 190
213 213 194 206 206 215 229 219 260 246 258 261 252 272 306 301 289 289 287 284 278 278 259 265 229 227 219 210 208 200 210 203 214 216 225 230 244 171 198 165 179 189 184
205 201 219 221 229 186 265 259 257 271 264 287 310 308 303 299 296 282 275 274 295 268 293 260 297 300 278 251 239 244 215 203 204 211 217 219 227 243 227 164 200 202 180
169 214 227 230 227 246 266 264 262 285 275 307 310 312 309 304 300 296 291 295 297 293 286 291 293 287 285 276 262 263 249 246 248 233 215 217 227 220 242 253 213 201 202
233 155 210 240 244 267 289 283 277 307 304 322 318 314 309 306 301 302 305 308 288 279 278 277 301 338 355 354 298 292 277 255 251 252 252 218 237 229 229 236 246 240 166
234 251 250 254 287 291 300 296 308 310 315 313 313 305 301 297 303 308 308 288 279 281 289 277 296 298 297 300 322 351 339 309 294 276 260 266 249 251 231 236 233 248 233
257 262 267 287 299 305 307 325 328 317 298 281 282 282 277 274 280 282 283 288 275 271 278 290 250 253 274 304 306 310 320 346 373 316 285 270 278 259 252 239 241 235 245
274 264 283 310 309 314 301 288 284 290 330 389 400 394 359 304 297 282 286 272 276 274 286 261 272 301 274 266 274 282 289 298 314 342 384 337 286 280 268 269 255 244 242
268 314 316 319 307 284 283 425 421 408 405 405 404 415 383 389 382 374 378 368 362 280 302 278 289 283 270 279 264 269 274 274 279 293 318 356 385 369 279 273 282 267 248
320 318 279 281 348 414 409 395 384 383 420 380 367 376 395 418 418 418 414 411 410 409 411 414 355 318 298 276 277 311 397 396 391 323 299 314 330 400 391 364 323 278 275
290 286 395 425 408 390 394 406 390 390 388 400 393 397 398 395 393 390 390 390 390 391 392 392 389 381 385 384 384 379 378 374 376 380 321 385 317 326 347 420 338 306 278
393 424 405 411 408 414 424 420 407 407 403 395 395 394 391 386 380 378 377 373 369 363 363 369 372 370 373 376 376 377 377 371 364 364 363 363 367 367 326 334 410 357 279
412 417 426 419 411 406 406 406 404 401 397 393 384 381 378 374 371 365 355 352 353 353 357 362 358 347 344 346 348 347 353 358 363 379 362 361 362 365 302 303 326 405 363
433 416 403 394 383 379 380 381 382 384 386 383 379 370 362 362 351 347 353 352 351 341 337 339 351 393 362 352 385 372 366 360 344 351 372 378 366 361 360 316 283 387 395
399 388 379 371 365 359 357 357 357 357 358 360 361 357 355 342 349 351 347 327 328 355 378 366 361 363 364 365 366 367 367 370 393 435 351 351 387 365 358 361 371 373 383
373 363 355 348 345 341 347 349 349 348 348 349 348 348 343 340 349 327 319 363 340 330 335 329 330 328 328 336 340 355 375 382 365 388 417 366 348 385 364 356 360 368 368
356 352 348 347 358 359 356 355 356 357 348 345 347 348 347 347 314 310 333 315 314 317 308 331 332 331 345 327 347 341 345 395 372 358 379 408 403 351 386 361 354 358 368

GFSMA_2pvu_pres_024.txt.gz
Presure
182 187 183 185 186 179 178 173 186 187 185 191 184 191 184 184 194 191 193 208 235 230 225 226 226 219 214 232 214 194 210 206 194 190 191 194 192 181 200 194 190 213 204
181 179 184 183 184 180 177 182 178 176 187 183 182 183 179 189 192 178 193 193 199 209 232 219 222 233 208 206 215 195 208 197 199 203 195 191 191 182 193 188 184 195 179
164 175 177 175 173 180 173 182 189 191 166 176 182 187 176 188 184 184 184 183 190 195 200 219 237 216 219 215 213 206 209 194 190 196 183 197 192 190 193 186 186 179 174
176 136 182 177 187 132 167 189 186 199 194 191 197 193 197 189 182 186 186 192 184 187 194 192 205 223 231 218 216 202 209 201 193 190 194 202 188 190 185 195 180 173 181
130 179 136 183 186 187 181 184 159 193 164 205 201 192 204 210 204 198 184 205 188 188 189 188 195 201 211 233 212 216 199 206 205 197 142 201 191 199 186 191 197 189 191
164 132 161 186 184 192 196 203 201 200 206 199 212 182 217 216 212 209 212 214 201 192 196 185 195 195 193 204 219 236 214 198 208 205 193 190 189 190 192 179 181 186 179
194 124 121 202 186 196 203 199 204 212 206 205 197 206 173 162 164 171 214 225 222 225 204 199 199 185 196 195 202 208 230 216 202 202 214 202 196 195 185 194 189 180 192
140 203 198 166 183 101 210 209 206 203 194 201 218 216 228 218 228 223 216 218 220 221 220 228 211 210 194 193 199 201 202 217 242 206 196 198 212 195 199 197 194 194 185
187 152 181 179 204 164 208 191 158 208 213 205 209 231 235 230 245 272 216 253 163 153 183 226 236 231 217 205 193 198 204 202 215 235 214 199 195 206 204 194 199 188 203
205 204 203 202 199 195 222 216 224 225 244 225 235 226 224 240 257 275 277 257 271 270 268 277 234 239 237 229 217 203 200 207 203 206 229 229 203 191 193 205 208 199 193
201 204 204 195 216 232 221 220 217 255 271 262 256 258 193 252 135 270 281 255 272 278 274 325 329 278 264 239 233 230 216 205 205 205 203 227 225 212 202 192 183 197 208
205 224 209 143 220 233 253 247 249 264 272 267 271 269 262 267 282 280 286 285 202 297 314 315 317 315 276 270 240 238 236 230 214 207 208 203 217 224 211 205 201 200 192
212 216 216 224 229 260 260 264 269 283 280 278 267 272 274 291 294 302 303 298 298 308 325 316 311 306 303 310 280 237 234 241 237 224 211 207 204 206 227 228 211 203 155
210 221 206 233 247 267 268 282 287 281 287 294 280 290 308 307 308 304 308 323 317 313 312 317 310 309 308 306 295 284 291 242 240 243 227 219 213 207 208 211 229 236 204
220 227 229 256 274 288 301 304 297 305 306 309 308 320 313 311 309 317 284 285 307 317 299 308 307 309 306 305 303 301 305 297 302 267 247 247 223 217 216 215 204 224 229
234 236 253 289 310 316 316 318 317 324 325 325 315 287 354 351 360 344 340 346 324 290 285 277 289 294 307 306 308 309 311 309 318 302 308 277 271 246 228 216 210 216 215
233 253 290 321 325 331 293 293 297 388 401 424 419 412 407 398 401 398 397 391 390 391 379 347 287 275 279 294 306 286 285 293 294 293 302 326 307 310 281 262 238 215 206
268 322 336 331 323 286 431 426 415 402 393 383 379 380 393 379 375 373 378 383 398 382 387 385 379 301 283 257 277 275 268 277 288 294 306 316 329 338 313 281 271 260 258
336 341 321 290 437 420 410 416 416 415 415 408 403 395 392 390 390 389 386 382 371 380 377 379 375 368 371 368 275 255 258 255 263 279 301 276 275 325 339 351 312 268 265
335 284 450 425 436 426 420 413 410 408 408 413 411 404 397 388 384 378 383 386 390 399 403 409 413 408 416 418 417 387 337 267 260 262 270 291 312 290 309 327 338 357 295
383 437 427 427 416 405 395 389 384 380 375 377 389 399 398 398 391 388 387 387 387 385 387 393 392 389 390 390 390 391 396 396 401 401 408 282 291 318 317 308 320 327 339
429 408 417 401 391 383 374 370 365 361 357 358 363 370 386 392 388 387 386 386 380 377 376 374 368 364 364 371 373 375 380 380 380 382 387 392 315 292 285 284 290 305 309
406 404 387 379 370 366 362 357 352 346 342 343 346 351 358 363 370 375 370 364 362 354 351 355 359 357 359 361 368 371 372 377 378 382 393 391 394 398 396 395 399 345 332
391 377 372 365 361 359 360 358 355 354 354 355 354 350 350 355 362 359 353 346 345 347 352 359 397 413 362 363 390 388 387 372 350 374 358 355 362 371 384 399 394 392 389
378 366 365 361 374 370 359 353 347 343 339 337 341 353 355 344 347 345 339 334 340 352 352 334 327 329 332 343 347 350 352 361 378 376 373 377 382 383 354 363 387 393 385
366 364 363 371 349 346 357 348 344 343 344 343 339 339 351 349 339 339 339 323 328 334 311 310 312 306 411 451 335 323 333 341 343 347 346 381 387 378 383 405 418 365 389

GFSMA_2pvu_pres_030.txt.gz
Presure
194 188 179 184 175 163 160 176 169 165 163 159 180 182 193 191 193 188 210 178 174 201 202 195 202 200 211 212 233 233 205 216 213 208 206 214 218 206 197 210 191 196 206
195 202 197 194 140 126 125 175 186 199 181 185 149 198 176 194 180 209 209 211 200 184 195 197 200 198 200 205 211 229 241 199 212 219 224 201 177 217 204 195 190 211 186
143 146 185 185 194 187 166 180 194 193 177 166 173 199 201 206 213 142 211 211 188 209 210 202 194 196 199 203 198 209 220 233 208 203 211 215 218 213 198 196 186 187 184
186 179 177 177 185 197 198 206 193 141 165 175 138 199 204 206 208 149 210 211 211 175 182 214 209 211 197 191 200 196 209 216 220 215 209 201 205 219 182 198 192 126 188
180 179 173 180 183 202 194 174 209 210 212 212 171 208 214 214 206 181 204 204 210 217 220 200 203 206 192 210 189 197 200 206 208 233 203 207 198 217 214 205 195 194 91
172 195 197 194 201 206 203 201 201 125 130 206 183 129 198 187 145 200 210 205 203 205 211 212 205 208 197 200 209 184 198 196 210 220 207 211 203 200 195 210 189 205 184
189 201 205 126 203 203 202 195 202 109 200 120 196 205 129 202 203 103 217 209 207 223 211 204 206 219 215 218 204 209 193 199 201 209 220 218 209 203 193 192 207 199 191
210 194 189 202 199 194 132 198 199 204 211 208 204 208 216 213 209 206 203 206 214 221 211 227 204 215 218 234 233 224 215 204 197 199 210 221 200 204 202 196 195 209 189
199 192 191 195 200 189 201 170 203 206 212 211 213 224 222 221 219 215 183 207 214 222 240 240 253 242 240 220 255 248 230 228 209 195 202 210 214 196 213 205 208 204 216
133 202 198 119 126 195 189 215 217 221 196 195 231 232 223 222 205 237 216 238 252 256 253 256 266 269 310 266 285 278 240 230 229 213 202 202 215 215 198 207 191 207 193
191 134 123 163 134 127 146 219 221 233 234 232 237 243 241 250 255 260 267 255 253 257 304 321 320 313 314 316 302 292 270 263 249 235 216 214 202 216 223 202 204 212 201
187 145 199 203 218 221 219 228 231 239 234 240 250 245 257 255 262 269 288 286 291 326 316 317 313 310 315 315 315 299 282 289 272 245 245 220 217 206 216 225 203 212 193
208 210 214 223 233 233 229 234 234 239 249 249 251 266 283 343 337 333 329 335 336 335 332 330 330 328 317 312 312 313 299 291 289 286 248 243 227 214 211 217 229 211 205
188 222 219 244 241 237 239 233 251 253 263 263 339 299 336 336 338 341 349 307 288 308 295 284 287 285 277 316 309 319 314 300 295 283 291 237 150 232 231 214 218 235 219
236 242 231 237 242 252 253 254 256 265 344 285 354 354 339 306 302 453 444 438 430 439 440 431 438 333 307 298 281 269 320 323 301 294 288 293 273 256 244 224 219 217 236
226 250 250 251 260 264 261 268 295 281 337 313 294 284 339 436 447 445 434 424 409 401 408 418 425 420 420 325 308 301 292 323 325 300 298 299 296 283 274 242 247 220 216
249 262 273 279 360 356 354 296 291 288 283 426 429 417 408 405 406 412 419 424 413 406 399 386 396 399 400 399 385 346 326 302 315 331 315 305 298 313 323 312 239 252 227
267 262 309 291 317 310 328 289 299 434 427 415 403 393 386 384 381 380 385 393 405 417 412 398 382 373 386 380 385 394 411 384 346 311 325 313 322 327 322 314 315 261 258
255 312 308 298 306 303 291 417 425 413 408 395 388 381 373 369 367 364 365 371 378 386 406 407 397 381 367 362 373 380 390 398 403 417 304 279 295 318 325 326 318 323 282
322 316 304 319 319 376 431 414 398 395 387 383 375 371 371 368 362 360 357 356 359 366 378 397 402 385 384 384 364 361 364 378 394 397 409 353 282 286 314 326 328 337 329
324 325 326 338 441 420 409 392 384 378 376 373 375 375 369 367 365 368 373 356 347 347 355 371 395 398 389 386 383 379 384 380 375 384 394 398 403 368 296 298 316 331 336
333 338 434 425 411 398 387 376 373 371 378 367 359 354 354 354 351 341 350 369 354 343 342 351 370 387 387 390 390 395 398 394 387 376 381 423 403 439 406 284 299 315 330
412 418 408 397 384 376 371 372 375 368 356 353 351 349 352 357 348 347 344 347 368 352 341 343 359 386 389 386 392 394 395 398 401 399 404 407 390 421 414 441 401 300 317
406 397 386 373 371 367 373 377 361 353 345 339 378 421 455 459 465 392 338 338 352 362 354 347 361 370 373 367 367 365 363 367 372 369 378 385 387 397 406 417 426 432 297
394 383 374 365 370 367 372 355 348 340 367 438 446 444 439 444 456 463 336 326 338 349 355 362 354 348 347 347 354 347 347 349 358 361 368 377 375 380 385 390 395 401 399
406 381 369 373 364 366 351 339 337 356 416 418 429 445 440 449 456 467 337 322 335 354 360 345 337 348 338 322 323 322 319 318 403 339 350 354 352 395 410 387 384 383 391

GFSMA_2pvu_pres_033.txt.gz
Presure
193 184 189 190 191 186 189 178 187 187 166 131 131 197 167 202 199 190 176 203 198 199 208 212 200 215 195 201 200 221 235 250 207 207 209 210 212 215 228 215 199 189 191
208 205 152 194 188 191 187 179 177 180 182 185 179 183 203 206 209 209 184 198 155 176 215 217 221 200 206 191 203 199 216 227 226 208 211 203 211 212 220 216 203 228 204
195 188 183 147 182 184 181 184 173 172 197 198 215 208 204 208 211 200 186 160 153 148 212 215 215 224 214 204 204 199 203 215 224 229 204 210 202 231 213 222 206 198 209
182 185 190 184 183 184 188 186 208 206 207 207 204 207 133 151 206 204 202 212 212 210 188 208 205 216 205 203 213 212 189 206 211 219 210 207 204 200 216 210 214 202 205
181 186 182 187 192 195 205 206 197 191 199 196 197 184 186 189 197 200 199 200 198 188 209 205 207 206 210 216 205 222 207 187 205 209 218 214 206 204 187 204 199 203 198
189 186 186 194 203 210 200 195 177 198 200 199 199 186 190 196 176 162 196 181 199 169 203 145 132 205 210 212 209 217 221 206 193 204 213 210 206 204 198 202 201 196 192
182 128 192 192 204 199 199 198 197 193 194 208 193 200 206 202 205 212 126 194 204 203 113 202 210 204 206 203 212 210 220 221 209 200 205 213 217 208 204 200 204 205 202
189 192 192 203 207 209 139 193 194 196 158 208 192 216 220 216 219 215 215 220 220 221 220 225 222 215 205 207 206 211 222 229 201 216 205 206 215 217 211 197 205 207 202
195 206 199 188 195 109 194 188 145 156 167 214 130 138 141 232 214 217 219 218 226 227 222 221 225 219 212 216 213 208 208 220 221 210 225 211 205 215 214 219 199 206 205
195 194 192 189 139 176 198 212 225 226 230 220 217 225 227 230 228 228 223 217 225 238 244 247 247 249 245 234 219 233 203 216 223 227 223 217 213 203 216 226 209 211 207
196 171 200 110 204 209 220 218 223 221 214 237 222 235 242 261 267 272 276 252 255 247 259 262 350 343 344 341 313 274 263 234 264 257 255 231 212 218 203 219 227 205 203
198 197 201 203 218 217 222 228 234 235 240 255 260 273 271 272 267 324 362 353 349 297 289 332 301 345 319 288 233 325 321 327 327 323 319 303 276 236 219 202 224 223 208
193 195 204 212 224 228 233 230 235 243 255 261 271 259 276 306 295 280 276 285 325 307 303 307 318 335 327 326 323 317 319 315 324 312 315 315 314 281 237 229 213 225 227
202 211 219 219 234 233 239 247 262 276 282 290 278 312 342 272 264 267 281 326 324 284 303 283 287 286 277 290 300 314 302 308 318 325 322 306 310 299 280 278 227 213 228
223 229 234 243 249 261 272 279 292 288 338 336 324 324 300 303 286 289 318 324 445 460 460 456 453 453 453 463 338 298 285 279 293 329 317 309 296 307 294 288 248 226 219
235 244 250 261 271 278 294 336 344 342 339 334 332 333 380 438 429 425 422 422 414 415 426 429 437 436 422 429 440 441 351 309 296 289 313 336 315 305 298 289 274 246 227
245 255 275 262 284 277 353 354 353 353 352 353 438 426 416 407 402 398 396 394 392 393 399 397 419 419 425 404 413 436 422 366 336 311 298 294 342 306 298 295 282 277 244
269 250 267 289 345 328 324 335 353 441 436 427 420 407 399 395 385 382 379 378 377 372 377 380 381 405 419 406 393 395 410 403 399 348 330 319 311 336 300 299 287 284 287
274 267 345 337 333 348 399 430 424 416 407 398 393 391 383 379 377 376 376 376 370 371 366 364 364 375 395 406 405 389 390 405 405 399 373 337 320 321 314 297 296 300 295
265 345 354 379 434 430 422 410 401 392 383 377 377 375 373 375 379 378 378 375 370 374 369 363 359 360 373 393 403 396 388 389 396 392 412 387 355 313 266 332 298 293 302
364 430 441 428 414 407 401 392 385 373 369 372 373 374 373 365 358 360 362 354 352 348 348 372 361 355 358 373 396 404 394 381 378 387 397 402 415 410 344 276 329 306 293
438 429 418 417 413 403 396 387 372 371 375 374 370 357 353 352 351 351 355 347 348 344 356 344 365 352 348 357 380 410 404 389 385 387 373 378 395 403 409 413 283 320 315
428 459 473 449 430 411 397 381 374 371 371 356 351 346 345 368 437 461 453 457 462 360 346 338 360 354 344 350 367 396 398 401 399 386 388 387 379 381 383 413 420 304 311
440 401 388 384 417 401 390 377 371 363 350 344 342 363 405 416 432 450 445 438 453 455 342 337 360 355 343 351 366 390 393 391 391 391 397 404 393 399 399 412 405 433 428
383 378 376 377 401 380 368 364 353 341 335 344 360 402 407 428 441 445 444 445 447 461 337 339 370 356 350 357 383 379 372 368 363 367 377 388 384 395 400 403 404 405 413
442 383 365 366 372 365 360 345 336 325 347 359 403 406 435 452 457 457 462 468 469 422 337 339 362 355 364 356 349 347 364 368 356 394 419 410 355 368 370 374 382 389 396

GFSMA_2pvu_pres_036.txt.gz
Presure
216 194 199 176 185 185 184 184 184 182 184 186 182 192 191 206 181 182 143 213 213 211 211 212 209 202 210 203 204 188 212 227 237 206 219 208 228 218 208 215 196 189 184
191 182 188 187 187 186 177 183 184 180 182 191 182 188 198 204 197 206 203 203 208 206 197 168 203 216 213 216 197 213 189 206 221 230 207 204 202 215 212 243 200 205 202
185 189 193 190 185 174 183 190 189 189 191 194 207 208 204 194 187 192 193 194 194 193 200 197 205 193 216 218 220 220 212 193 201 215 230 237 203 202 207 249 250 207 199
192 194 191 186 176 185 189 181 190 189 190 205 202 196 194 198 191 191 194 195 194 196 138 192 159 203 143 203 218 226 207 220 188 202 214 228 228 203 208 208 240 216 202
184 190 181 184 187 187 190 184 195 204 196 190 158 184 181 185 192 193 192 174 190 185 195 188 196 197 189 205 199 207 216 204 215 187 192 213 222 220 207 208 206 213 215
190 182 184 178 185 116 164 184 196 191 189 186 194 194 192 184 181 180 186 207 203 192 191 179 132 204 179 160 169 199 168 218 206 210 209 187 212 222 218 199 214 204 215
192 184 185 187 190 190 195 195 184 196 195 197 196 195 193 190 193 196 208 216 211 212 206 205 198 210 209 205 196 124 204 207 199 218 204 222 188 206 219 218 204 213 203
177 188 197 195 195 215 196 194 205 200 147 124 193 201 214 210 141 169 188 117 195 219 215 216 217 220 214 207 208 210 202 206 211 199 220 209 218 193 206 214 218 205 212
197 194 199 203 201 193 202 199 189 194 200 199 222 220 219 219 219 214 216 218 217 180 158 223 226 224 223 221 217 217 214 222 216 213 216 225 223 216 191 206 216 210 210
195 202 186 196 202 212 206 203 210 219 227 224 218 235 226 236 241 245 236 224 229 219 244 245 231 243 240 212 231 227 229 221 223 229 226 222 218 227 216 191 209 218 205
194 194 201 204 200 205 215 223 226 228 230 221 237 234 232 235 248 252 260 300 298 285 290 280 317 280 269 268 268 258 242 236 240 237 229 232 228 225 227 217 193 208 222
193 201 194 204 213 215 222 220 233 232 229 239 248 245 276 295 287 296 298 262 361 355 361 350 351 274 340 324 314 363 326 290 255 248 237 251 241 235 233 224 218 208 212
199 193 200 209 216 222 225 238 249 244 243 263 275 286 263 250 337 358 353 330 352 346 338 339 343 336 326 288 279 299 269 365 357 294 279 277 278 267 245 233 224 221 209
192 199 209 217 226 236 244 248 232 258 272 283 287 311 340 346 343 338 329 327 343 378 365 353 340 331 328 316 301 310 292 324 281 293 350 346 154 266 334 254 249 245 226
199 217 220 234 240 245 239 268 277 287 300 301 348 349 376 384 405 439 458 454 452 464 468 446 444 457 461 466 358 328 313 294 282 277 284 321 330 338 339 328 305 261 240
219 237 248 264 246 263 270 284 313 317 347 419 425 433 434 432 436 429 421 415 417 422 433 424 405 408 425 433 443 460 474 351 328 297 291 273 323 321 329 336 333 318 291
249 250 251 246 256 268 278 346 429 448 442 437 429 423 416 406 401 398 393 394 396 399 407 402 394 385 387 400 412 439 447 450 476 335 313 294 284 311 314 322 324 329 318
250 270 267 267 271 280 444 444 437 427 420 413 408 401 395 388 382 377 377 380 381 380 383 388 386 377 374 376 392 405 440 434 431 443 372 321 314 292 273 305 317 328 331
260 246 273 271 378 444 434 447 439 431 420 410 399 392 385 375 372 375 379 380 374 375 377 379 377 371 372 364 372 386 402 436 419 410 423 437 331 313 302 293 316 321 321
270 274 351 463 466 461 480 453 434 439 420 408 397 386 375 377 380 380 375 367 363 361 362 362 361 369 372 368 368 371 383 403 435 409 398 413 416 395 328 315 305 273 327
277 426 475 449 435 421 394 387 380 427 409 395 384 378 375 372 368 362 357 353 352 352 352 357 359 357 348 366 366 365 370 382 411 422 403 390 397 424 418 333 321 317 308
442 470 445 409 394 386 401 382 380 404 388 375 371 361 355 351 352 348 355 366 376 426 450 392 356 351 352 344 367 366 362 367 381 417 418 381 402 429 409 403 378 334 325
480 424 398 439 459 451 385 373 381 375 363 352 346 343 338 340 349 372 404 407 417 436 456 464 461 378 347 352 348 366 358 358 371 392 413 409 383 391 413 407 403 404 350
409 397 444 454 439 386 382 377 372 355 342 337 337 348 353 382 407 426 438 441 443 449 451 450 452 435 338 364 343 360 346 348 361 387 406 403 400 393 406 404 410 398 414
455 453 454 419 394 378 367 363 341 328 330 344 344 354 407 450 454 453 458 459 455 452 452 449 461 445 337 335 355 352 339 352 369 394 405 409 398 399 399 399 398 385 419
460 423 398 380 373 368 350 332 325 346 336 342 349 401 438 428 428 434 442 456 465 467 461 461 450 337 331 360 361 343 351 381 397 393 404 394 399 402 401 407 406 403 399

GFSMA_2pvu_pres_039.txt.gz
Presure
222 207 210 195 194 193 190 192 190 183 177 184 185 179 182 188 189 193 206 208 206 209 193 197 201 153 210 213 220 219 187 191 201 210 227 250 250 223 191 197 195 193 204
195 207 202 195 192 190 188 184 179 174 180 182 182 184 183 183 184 197 199 200 192 191 193 195 197 202 194 199 202 210 214 211 209 201 199 220 240 224 212 216 201 196 192
211 200 193 192 178 189 181 183 175 184 173 182 180 180 180 191 195 193 190 192 196 196 186 189 187 192 202 202 194 204 205 216 215 221 191 200 226 235 227 213 240 207 195
203 190 184 191 193 186 188 191 183 184 190 191 190 188 196 202 189 197 190 192 195 180 195 194 193 194 191 195 195 197 197 203 208 216 223 189 199 224 221 222 197 236 209
200 185 190 192 194 190 193 180 185 190 193 194 195 196 188 193 193 197 196 191 186 192 195 194 188 187 190 195 203 171 202 206 205 206 214 222 196 188 217 228 209 217 221
184 191 194 192 187 184 184 192 195 192 192 189 183 192 194 191 199 187 200 189 186 190 191 188 197 204 196 195 200 125 145 198 210 147 196 210 217 198 187 215 219 211 220
185 195 198 184 185 189 188 188 191 188 186 186 188 187 190 194 195 193 126 185 189 192 191 127 194 202 204 201 201 204 193 203 135 211 207 202 211 217 199 189 213 225 203
200 198 184 187 189 196 179 191 194 196 182 189 196 195 203 206 201 205 207 210 220 219 213 208 207 214 146 212 210 208 206 206 206 205 211 146 171 209 216 199 190 214 222
190 188 186 195 190 185 194 200 200 208 208 202 212 218 215 224 225 218 221 229 226 232 227 224 220 217 217 216 210 176 218 220 218 214 207 212 217 217 212 221 197 186 211
134 190 195 195 198 198 209 210 209 213 206 216 219 229 233 239 243 238 233 225 236 236 241 230 237 247 241 236 233 225 210 231 230 226 219 219 224 221 218 219 212 197 191
196 191 198 194 212 206 195 209 217 224 224 224 227 235 218 230 226 253 243 235 229 243 233 246 255 259 278 273 303 277 272 244 232 232 230 234 232 226 226 225 199 216 199
183 186 197 199 198 206 210 207 220 221 226 221 247 242 241 274 279 250 250 284 292 325 333 344 328 349 358 330 324 360 378 379 287 265 241 237 237 240 226 228 234 211 214
188 196 196 202 206 208 212 219 212 237 255 261 266 265 283 280 286 299 355 360 383 393 383 375 377 371 361 354 341 344 353 327 329 322 301 271 254 246 240 245 236 235 217
193 202 200 201 216 216 230 234 253 260 280 266 289 274 286 307 426 445 442 439 444 446 442 423 407 394 381 370 362 344 328 329 353 356 349 351 281 265 255 263 261 242 233
201 202 210 214 245 243 259 255 273 287 301 299 303 378 458 449 443 435 436 437 436 440 438 438 436 441 444 450 419 390 369 358 351 352 349 351 348 278 269 269 266 269 257
207 230 236 248 245 267 267 265 272 291 383 447 480 445 431 437 424 417 416 411 408 412 420 414 408 409 417 422 427 439 449 410 366 357 346 335 327 329 313 287 290 282 274
237 243 239 251 260 258 264 276 379 471 451 475 460 468 479 448 432 417 408 398 393 391 396 391 384 384 394 400 403 410 420 432 440 424 356 338 318 307 294 299 294 277 315
234 236 250 250 256 266 331 462 486 459 445 421 400 395 388 388 426 411 401 393 386 377 379 384 376 375 380 383 389 393 401 411 416 421 436 367 342 295 298 269 274 278 270
241 244 258 257 348 465 477 474 433 416 397 482 409 393 434 420 408 399 392 387 384 384 382 384 380 376 375 371 373 380 390 395 399 397 406 436 446 346 315 299 293 319 329
288 254 310 444 490 463 455 405 411 425 476 432 387 386 394 387 381 375 370 366 364 363 360 363 365 365 366 366 373 381 384 385 387 387 388 404 442 435 446 318 285 276 277
276 341 508 478 440 418 412 444 458 448 397 390 390 381 369 361 354 350 347 343 340 342 345 347 346 349 352 355 357 363 376 390 378 372 373 381 415 430 440 445 326 303 284
416 525 458 426 403 410 465 447 402 393 387 372 361 350 339 335 338 347 350 356 360 365 373 377 377 376 377 375 361 359 361 367 384 379 372 372 386 423 423 410 444 336 311
489 440 407 391 483 461 414 395 384 371 350 337 330 338 342 341 349 353 388 460 459 463 466 454 435 428 436 444 470 368 355 358 358 379 369 364 376 392 413 411 425 417 362
437 402 387 412 409 400 381 361 346 332 324 353 337 340 353 352 385 439 429 430 439 444 465 470 469 454 449 453 465 468 349 357 339 369 367 356 369 379 421 410 408 415 437
403 378 409 380 363 354 355 336 324 326 352 319 323 354 351 388 422 415 414 419 424 441 453 467 461 450 440 443 452 436 345 378 342 368 360 349 361 382 406 412 416 402 404
379 361 373 363 356 350 333 330 319 350 321 308 313 346 361 415 406 404 409 418 429 444 453 468 462 449 448 456 465 336 368 335 362 351 346 347 373 398 406 409 410 410 392

GFSMA_2pvu_pres_045.txt.gz
Presure
212 225 237 225 225 220 208 205 194 194 193 195 193 191 186 191 184 184 185 178 185 189 195 193 191 197 197 195 202 201 194 200 200 196 189 166 200 204 235 209 206 193 187
236 229 229 225 212 202 197 194 194 198 196 195 184 186 192 192 196 181 180 188 194 190 186 192 191 192 184 193 198 197 195 199 198 195 199 215 199 181 208 236 215 206 195
221 229 224 220 222 228 201 195 198 199 194 184 189 185 190 191 175 186 190 186 184 174 185 182 188 189 187 193 187 189 198 206 206 165 193 204 171 192 188 213 234 203 185
207 216 214 215 211 199 209 203 199 188 185 187 184 184 186 191 191 183 182 185 184 188 181 190 195 192 194 187 190 192 188 199 204 210 200 195 197 208 214 192 211 227 201
211 213 205 194 189 193 193 195 190 192 190 192 193 190 184 198 176 177 175 176 185 192 194 193 192 192 193 197 186 197 195 193 187 203 204 203 203 197 204 217 207 207 224
207 206 197 197 190 192 184 189 192 193 189 186 182 95 181 174 159 181 181 187 191 192 194 194 194 192 192 191 196 194 204 202 195 198 205 207 199 206 199 197 209 218 192
196 202 202 184 187 190 184 189 197 201 197 168 184 180 178 180 191 189 190 192 189 194 197 194 195 195 196 198 201 205 180 208 210 209 203 204 207 196 204 198 199 204 218
189 185 191 186 188 190 195 201 184 181 183 192 194 190 187 188 190 190 185 192 196 197 201 202 204 203 201 201 206 207 206 207 192 221 216 210 205 199 203 204 196 195 202
195 195 193 194 199 205 213 192 181 187 193 195 188 183 186 193 194 199 203 206 207 205 208 211 213 210 213 213 213 215 215 218 219 218 219 218 218 214 206 204 209 190 194
204 201 203 203 196 192 185 190 195 202 194 192 201 200 203 222 219 238 229 223 242 244 247 252 249 245 242 240 229 224 229 226 225 225 218 227 223 226 221 214 205 205 186
200 197 198 206 204 205 204 187 192 194 202 211 211 218 223 229 230 238 238 247 242 249 254 262 261 256 258 266 245 252 260 244 241 243 242 246 231 234 232 226 226 216 203
210 211 206 200 183 188 194 198 203 207 198 212 212 225 262 244 270 265 319 335 296 278 292 336 261 346 295 268 271 264 275 275 269 271 264 254 259 255 245 142 233 229 231
208 202 198 196 199 201 196 208 204 212 217 226 229 257 278 312 295 330 355 427 492 500 507 506 508 497 481 475 464 450 434 421 361 310 310 279 273 272 267 253 250 242 239
195 197 201 199 193 207 200 215 227 236 239 257 278 287 324 323 348 477 478 489 480 459 446 436 435 496 459 503 500 488 472 471 459 420 414 410 382 271 282 270 265 249 248
196 199 195 222 217 218 227 256 271 260 268 283 320 323 360 466 445 431 414 421 497 489 454 469 466 444 408 409 428 460 456 445 445 452 462 471 416 391 310 294 282 269 251
195 199 235 233 228 249 260 267 249 269 294 322 400 463 443 429 452 483 491 453 439 429 430 404 411 428 437 443 428 425 434 433 429 430 436 446 456 466 432 377 286 281 273
206 203 239 239 259 260 251 265 283 309 356 470 444 422 428 483 461 430 415 410 405 400 402 389 383 386 395 411 427 432 425 417 419 420 419 422 431 444 452 454 398 376 283
241 248 259 257 244 240 264 295 296 457 447 427 408 393 395 392 389 380 369 361 357 357 360 359 345 349 355 363 374 402 414 411 410 408 409 409 411 422 442 446 444 396 369
262 249 243 264 267 309 310 343 457 446 422 401 384 377 376 372 357 344 339 367 357 348 345 347 353 364 358 353 350 245 372 395 399 398 395 393 393 402 417 435 443 437 370
246 234 254 290 298 294 374 464 444 418 396 382 369 371 356 344 340 332 345 344 335 332 334 362 372 377 377 371 370 363 352 363 375 393 392 386 384 387 397 414 430 437 419
235 251 270 279 275 325 457 446 418 398 379 366 370 351 343 342 338 328 349 339 334 334 366 431 431 428 429 434 443 450 373 361 356 367 379 391 392 387 385 396 412 429 431
262 271 276 303 323 414 453 422 398 376 365 358 352 339 338 334 325 343 340 332 334 398 426 418 416 417 422 428 429 445 463 488 366 355 365 372 382 388 380 383 397 410 426
285 289 284 319 396 451 430 400 380 366 356 353 339 329 326 313 335 336 329 328 389 418 413 414 428 436 439 446 445 451 463 477 471 375 357 361 368 374 384 378 384 397 410
273 263 342 388 445 435 407 382 365 363 352 345 331 325 318 338 339 329 325 324 414 395 388 390 443 452 453 467 465 464 470 471 471 424 377 354 362 365 374 382 378 387 397
273 358 394 374 441 413 383 369 361 357 349 337 320 326 346 342 326 323 326 391 396 378 372 377 369 401 475 466 457 455 455 462 463 445 417 378 360 358 363 371 375 381 383
360 403 372 449 420 388 369 366 361 356 330 315 349 348 335 322 312 318 330 413 376 360 362 352 349 365 443 453 439 434 434 440 453 457 456 434 416 349 353 362 376 375 372

GFSMA_2pvu_pres_048.txt.gz
Presure
205 205 218 232 234 217 216 219 217 222 222 210 197 203 196 202 203 191 193 185 191 193 184 182 181 189 193 191 189 194 196 197 199 211 205 158 158 180 214 226 197 190 190
220 231 236 246 230 225 236 232 232 208 203 199 203 208 197 192 195 194 194 189 185 185 183 189 187 184 186 191 183 188 189 190 195 204 199 204 207 156 159 201 242 213 196
241 213 209 232 225 231 224 209 225 205 209 190 189 195 194 193 194 194 197 194 189 185 199 185 182 183 187 189 189 190 186 187 185 192 193 202 197 207 158 158 206 247 205
215 220 219 214 216 213 211 207 211 212 194 193 198 198 193 193 200 201 203 183 185 188 182 183 177 179 178 180 188 195 200 194 192 186 187 192 196 202 206 156 149 203 229
213 211 213 215 216 210 190 197 211 193 195 195 197 196 196 201 203 207 188 176 173 187 183 177 175 176 189 181 187 190 193 200 201 200 198 189 194 199 207 201 209 163 195
204 198 205 187 197 213 207 197 195 195 199 199 202 207 211 211 183 185 191 194 195 195 188 190 190 190 189 187 192 192 192 194 196 202 201 197 198 193 203 209 197 209 192
189 195 198 199 195 197 200 204 205 210 211 206 201 203 201 196 194 204 197 192 203 187 187 183 184 196 194 186 183 183 191 196 202 201 198 201 198 201 192 202 209 197 208
195 186 195 199 205 205 202 202 199 195 195 194 194 198 201 201 201 196 194 192 190 193 194 194 193 191 194 201 204 205 201 202 204 209 209 205 205 206 203 207 204 210 200
209 206 203 202 197 197 207 209 208 207 206 205 203 199 194 197 193 197 198 199 199 198 200 204 208 210 208 209 210 211 212 215 216 209 208 211 211 209 208 212 215 199 209
196 197 196 194 194 201 209 207 206 203 200 197 198 200 202 203 211 212 223 236 233 234 245 247 242 243 245 244 233 247 237 230 225 223 222 220 217 218 144 212 213 211 201
194 193 195 195 203 201 195 194 193 194 196 203 211 222 224 236 244 246 239 236 241 254 248 245 277 288 277 264 292 255 265 270 255 243 237 235 227 227 228 227 217 217 220
225 206 200 194 192 193 196 196 194 203 211 216 214 215 217 237 247 268 274 281 281 265 301 402 532 536 526 517 513 512 386 363 303 272 260 257 243 240 239 236 229 226 223
198 194 194 195 191 194 199 215 204 244 253 249 248 262 273 268 301 315 316 361 446 482 466 459 451 454 453 452 481 523 526 519 509 475 342 290 280 267 254 249 242 237 237
196 199 197 197 196 194 238 239 259 258 256 247 246 268 290 278 282 385 366 462 455 463 508 514 499 490 491 499 500 495 442 494 507 503 493 459 325 285 291 266 252 251 243
190 190 192 191 234 249 256 256 254 244 264 248 314 299 310 373 366 454 441 414 403 449 436 424 423 423 427 434 447 462 479 484 433 454 474 509 505 469 305 296 284 273 255
191 190 211 237 255 259 254 240 243 270 283 274 280 365 336 441 449 421 400 390 386 385 387 361 360 363 379 397 411 418 424 439 464 441 417 429 481 489 492 448 341 286 279
207 219 221 261 256 259 243 233 272 268 288 305 327 360 445 428 410 392 385 378 370 361 360 345 341 358 366 361 366 375 384 396 414 437 451 434 409 452 460 471 488 433 384
230 210 263 255 259 242 253 273 279 289 374 334 397 444 423 402 389 376 373 361 352 351 352 344 343 349 343 341 341 348 362 368 375 389 416 434 431 428 435 443 454 469 481
238 252 261 244 253 250 278 265 277 317 371 402 439 419 398 380 369 367 353 348 345 344 337 351 346 349 346 341 346 359 377 375 377 368 377 399 425 420 416 423 433 442 454
249 256 253 240 256 262 279 287 326 388 385 438 417 401 376 370 364 353 341 335 334 329 347 347 342 343 389 436 437 437 442 451 411 381 368 368 393 411 407 404 415 424 436
221 255 243 247 260 285 282 323 391 383 440 418 402 379 372 358 358 345 333 320 344 349 341 338 335 409 413 414 426 432 437 435 443 452 382 366 368 395 400 396 399 408 425
251 240 260 265 273 276 310 390 385 445 418 399 378 366 365 358 346 325 334 350 348 337 329 340 416 391 390 397 447 447 449 444 446 441 455 379 363 367 392 389 385 394 407
235 253 254 269 283 264 388 386 390 422 400 379 368 365 348 330 332 353 341 334 327 322 326 354 384 371 372 367 380 446 461 463 455 452 455 469 376 355 372 392 384 383 392
249 253 265 287 269 352 391 371 429 405 372 374 362 332 325 342 330 335 337 346 352 360 352 390 367 357 351 364 379 472 461 466 464 467 470 469 462 361 361 373 382 382 388
260 273 286 287 330 394 374 429 411 373 353 339 331 330 336 329 323 322 331 353 360 360 403 369 356 334 327 341 375 450 442 449 451 458 465 467 458 368 351 361 369 379 384
263 292 287 315 384 377 362 414 384 354 338 331 330 331 323 330 327 323 342 373 362 349 380 354 332 321 316 324 354 446 439 427 438 452 459 454 439 396 355 352 363 370 380

GFSMA_2pvu_pres_054.txt.gz
Presure
183 186 184 186 184 202 198 193 231 244 251 237 223 223 221 200 203 220 213 196 184 178 198 193 197 198 201 192 201 201 194 183 200 194 191 189 189 184 211 218 182 212 195
192 184 194 199 195 190 224 214 227 234 221 213 229 210 221 212 206 208 214 212 222 222 190 189 198 186 188 190 193 190 194 193 194 196 192 186 189 195 195 200 188 188 199
193 193 195 188 235 231 227 221 227 207 221 212 211 209 210 211 211 214 211 208 214 198 204 224 216 191 191 193 192 190 191 190 191 201 202 189 182 190 193 184 212 172 203
208 209 206 232 222 223 221 215 205 210 211 203 205 208 197 202 205 205 204 203 206 208 206 212 221 213 221 201 193 189 189 198 194 196 191 185 181 185 192 195 197 217 184
220 234 228 223 230 225 201 207 205 206 206 200 204 200 200 198 196 196 206 204 208 212 207 233 226 225 223 224 217 211 218 210 205 204 198 193 187 188 191 193 194 190 203
240 229 219 213 199 200 200 202 205 205 191 193 194 200 196 206 214 210 214 217 215 215 215 207 202 197 185 196 214 224 219 211 210 220 214 206 196 196 195 196 189 196 197
212 203 198 201 196 204 205 203 192 197 211 233 236 227 218 215 210 203 202 199 203 195 202 200 207 212 213 213 207 173 203 208 233 215 197 187 191 183 196 193 195 187 192
199 200 199 204 213 232 232 229 231 230 232 223 214 204 202 196 197 196 203 203 208 217 214 210 213 219 221 222 219 225 222 223 218 219 218 215 195 194 190 192 182 199 192
227 257 259 260 270 270 246 239 225 214 210 201 198 194 190 199 200 200 206 213 213 217 225 226 254 229 243 250 258 240 232 239 234 234 230 218 214 214 211 206 195 188 187
225 226 227 227 230 223 216 214 203 200 195 193 190 196 201 203 201 212 213 214 218 255 265 269 264 265 268 276 279 282 286 281 262 247 234 239 238 227 214 196 207 194 182
221 210 206 205 206 204 201 196 195 196 193 199 201 193 193 203 206 219 218 229 264 252 250 262 266 250 254 257 267 269 270 266 264 280 294 257 250 244 237 220 210 196 185
207 211 217 211 203 200 201 195 196 192 194 190 193 200 204 215 223 238 271 271 262 264 281 320 290 300 419 445 304 429 407 378 309 312 325 306 292 284 259 247 230 228 225
213 206 194 216 223 221 207 204 197 198 195 200 203 219 227 265 266 270 262 269 282 287 363 293 408 419 461 463 456 453 442 446 452 457 484 445 313 311 305 285 263 249 235
209 226 230 232 215 218 209 201 203 201 222 222 219 227 276 275 257 259 292 316 381 384 384 418 459 447 437 427 420 416 420 414 412 421 420 429 478 502 501 320 297 274 269
206 223 226 217 215 208 203 211 219 214 226 239 254 274 264 267 252 297 290 379 378 395 453 455 430 412 403 398 394 392 391 394 389 386 391 399 410 443 479 493 522 334 307
211 221 236 217 205 206 211 210 212 224 232 251 273 252 285 285 286 338 375 369 398 455 453 425 398 382 381 379 379 380 371 371 370 370 370 373 379 393 412 448 470 497 541
213 236 236 212 205 211 220 215 227 243 252 271 251 250 290 290 374 365 396 391 444 425 409 397 380 376 373 370 364 360 352 352 355 357 357 361 367 367 386 394 426 454 484
239 235 211 204 205 224 226 229 238 251 265 243 269 275 286 311 374 400 386 437 412 390 388 377 347 339 338 339 340 342 343 365 365 365 152 367 185 368 376 384 385 413 443
233 206 206 217 233 240 239 244 252 265 261 287 278 288 372 388 397 383 432 405 390 361 346 349 353 347 347 346 350 355 355 352 355 357 357 357 368 279 375 378 376 381 409
204 205 225 234 228 237 241 246 266 256 280 279 295 361 426 399 381 405 399 380 354 343 345 342 346 342 340 342 356 376 372 375 385 410 374 410 414 426 412 370 373 372 377
211 219 225 233 238 240 258 265 253 281 277 282 295 419 400 384 369 399 371 351 343 338 330 331 331 335 364 395 393 384 376 405 388 381 381 377 385 391 412 462 464 372 361
214 233 238 234 245 259 257 267 274 281 280 295 430 406 385 372 409 376 350 337 330 322 321 318 321 357 401 390 373 388 384 373 353 352 354 352 372 377 391 437 464 460 375
229 240 236 250 259 244 276 271 281 285 293 436 414 385 373 376 385 361 340 331 317 320 313 308 321 411 388 363 403 368 359 346 340 337 347 341 470 475 485 468 464 460 458
236 238 247 263 264 266 269 276 298 344 427 415 385 375 364 373 371 348 332 320 316 308 306 308 317 406 371 401 363 349 338 333 356 364 352 464 451 449 476 478 454 456 452
241 252 266 253 269 265 274 302 389 431 402 394 376 367 353 386 364 341 330 314 310 306 304 303 312 362 399 375 350 337 345 358 356 348 363 451 438 444 462 470 464 454 451
250 262 265 261 266 275 295 394 420 422 405 377 368 358 376 373 352 336 327 311 305 300 301 301 307 326 403 365 341 330 347 357 343 331 364 442 442 452 455 461 465 460 463

GFSMA_2pvu_pres_057.txt.gz
Presure
182 190 191 187 180 186 185 192 202 199 194 203 220 231 224 220 214 219 224 224 212 216 201 173 218 195 195 192 196 193 201 197 198 203 196 193 190 191 191 193 189 236 191
188 196 189 192 194 199 198 187 193 205 220 235 238 244 211 214 208 208 214 210 208 201 209 203 219 219 214 215 208 190 194 207 204 198 200 193 190 193 200 192 198 226 186
203 195 199 195 193 198 195 190 218 241 212 222 208 208 208 213 213 211 198 194 202 197 203 207 203 201 206 213 215 204 204 195 206 199 196 198 202 194 201 198 194 198 211
191 187 197 193 189 196 203 236 224 223 210 206 209 209 210 207 208 210 213 216 216 220 220 219 220 221 229 221 216 212 204 216 202 200 195 197 197 195 185 194 192 196 195
195 185 195 195 217 234 225 214 205 206 207 205 207 214 230 248 248 254 249 243 240 237 225 222 214 205 205 211 208 211 210 216 231 214 198 195 200 201 197 194 200 193 199
192 203 229 227 218 207 200 204 200 236 248 264 266 257 231 250 249 229 219 215 204 197 189 204 206 205 205 206 213 221 227 221 207 193 210 226 206 203 197 200 196 197 193
238 224 216 202 200 202 210 222 227 225 231 224 218 218 227 219 209 206 202 197 196 202 208 207 206 209 213 210 210 219 222 214 222 222 186 208 204 223 208 200 201 208 190
211 201 201 208 223 219 216 216 219 224 227 218 212 208 201 200 199 197 195 201 203 202 203 211 215 207 218 219 218 221 222 230 231 236 236 210 201 215 204 217 217 207 204
207 225 222 220 207 221 221 215 219 209 209 216 228 227 217 210 207 200 198 200 202 203 205 210 221 226 224 228 237 235 226 236 248 252 233 240 238 226 215 209 209 224 212
217 213 207 206 202 199 203 205 198 236 237 234 222 211 212 217 211 202 198 196 204 206 213 214 225 230 234 238 243 243 273 283 287 292 288 292 281 255 243 233 228 206 218
204 201 196 199 194 192 190 211 215 227 233 223 224 218 211 198 195 201 203 202 206 216 219 230 230 235 241 292 292 283 275 285 273 281 292 274 282 293 287 271 248 227 220
198 196 193 188 194 198 200 215 220 250 245 234 217 206 204 205 215 220 216 228 229 246 245 279 288 309 347 398 360 400 410 418 419 326 433 294 319 292 289 285 286 261 242
195 193 193 188 184 210 211 230 255 237 220 215 212 212 207 224 234 254 262 279 287 293 296 360 400 399 409 418 421 436 464 468 467 473 483 484 404 359 315 288 272 288 279
192 195 192 176 190 219 226 241 225 214 209 213 232 242 233 239 266 267 278 291 288 310 311 401 429 414 405 451 455 449 440 436 432 429 434 440 449 453 455 442 331 295 283
188 190 197 185 219 222 231 214 208 208 221 224 240 237 255 263 269 273 289 298 308 377 440 421 403 427 444 435 424 412 406 402 407 406 395 402 413 423 427 435 445 453 320
197 198 188 214 229 223 206 209 216 219 228 242 243 256 264 267 273 282 293 354 385 442 422 397 455 426 403 396 392 390 386 386 389 384 381 384 384 390 399 408 420 433 438
195 190 212 242 221 202 211 213 215 232 246 249 265 265 260 278 277 311 350 418 430 405 394 446 413 395 370 359 353 353 353 357 354 351 357 365 367 370 377 387 395 404 415
206 214 240 219 202 210 207 215 228 246 247 266 265 269 280 279 290 373 417 428 396 385 416 414 363 351 350 355 355 354 351 353 354 353 359 361 360 356 360 368 378 386 392
217 241 212 203 207 216 215 235 245 249 262 260 279 278 282 297 386 433 428 395 385 395 402 367 347 347 336 333 335 338 346 355 362 363 362 361 369 276 380 381 362 369 378
246 225 207 206 218 221 229 248 249 260 269 276 275 282 295 369 440 423 395 382 372 405 371 348 337 325 324 326 324 329 416 408 400 400 400 399 397 393 396 206 377 384 373
212 206 211 215 216 237 247 250 264 257 279 274 282 287 306 427 427 403 381 373 370 383 355 340 327 321 319 317 317 377 393 380 371 406 412 389 392 394 391 401 409 403 375
208 212 215 218 237 246 246 265 256 269 275 282 318 345 420 430 410 383 372 366 395 365 344 330 318 314 311 311 314 400 418 405 370 379 360 351 364 355 357 368 374 385 398
212 212 224 238 245 248 263 271 263 277 288 335 414 419 428 409 386 373 365 355 378 355 337 323 315 311 307 309 308 380 402 367 355 347 342 339 362 368 372 355 361 369 385
212 226 237 249 249 263 270 268 271 277 384 424 420 425 412 390 371 363 354 387 362 346 334 322 313 305 309 308 306 376 375 351 344 354 359 352 366 354 354 415 462 468 498
229 241 253 250 265 271 261 275 279 393 409 421 413 416 394 370 363 355 352 373 352 341 331 318 312 307 307 308 307 339 375 347 343 349 360 348 340 404 455 449 452 461 478
244 249 251 270 257 269 277 278 400 438 425 405 395 397 376 363 357 350 341 365 345 335 328 317 310 309 308 307 306 327 374 345 333 349 346 338 330 428 450 457 458 463 471

GFSMA_2pvu_pres_060.txt.gz
Presure
209 194 192 184 188 187 182 198 200 194 193 196 197 196 194 197 213 222 219 213 211 221 213 214 212 212 206 205 214 212 195 183 214 203 185 226 204 194 195 198 190 197 184
176 187 185 191 205 204 202 193 195 191 192 189 195 196 222 230 210 215 215 210 218 219 219 224 227 228 224 213 207 202 217 203 208 203 218 208 200 198 195 200 193 188 206
184 205 206 197 193 192 194 192 195 191 195 192 223 226 213 210 211 263 273 228 231 237 228 232 258 243 234 237 241 242 237 226 196 206 211 208 200 199 192 201 199 188 185
205 209 202 188 193 191 193 188 192 202 226 217 212 215 204 226 228 225 230 231 229 245 240 257 235 227 226 231 244 238 239 239 241 243 217 210 222 216 204 190 194 196 187
192 196 199 199 189 191 192 193 221 208 210 203 210 225 225 228 231 227 226 230 211 214 212 214 209 204 203 203 201 202 200 214 215 211 214 224 220 202 213 211 192 184 191
188 187 183 190 193 193 217 220 205 196 199 207 218 217 212 208 208 215 223 221 217 221 222 208 205 206 204 203 205 209 209 214 208 207 212 197 202 208 210 200 211 195 187
197 201 200 206 241 223 209 195 191 216 212 205 205 199 191 204 212 222 232 230 228 224 218 216 219 213 207 204 205 205 208 209 224 223 219 227 226 203 204 202 227 214 194
191 205 230 219 207 197 190 216 211 203 206 203 194 191 200 199 254 248 245 234 227 224 220 217 214 206 205 205 213 218 219 219 219 223 228 236 236 225 194 218 203 214 220
225 219 207 199 193 219 214 207 206 201 193 195 180 182 189 246 238 224 219 217 218 220 219 212 209 211 217 217 219 223 218 228 220 226 229 232 235 235 226 217 224 213 200
202 194 199 224 212 212 207 199 196 194 195 195 181 192 243 229 217 213 207 205 202 202 203 203 210 209 216 223 227 235 237 237 242 241 240 238 236 241 240 239 209 240 225
187 217 211 199 196 196 198 196 200 193 194 199 191 248 218 206 204 204 200 204 221 224 228 237 238 239 243 249 246 245 284 301 305 304 303 306 299 307 302 304 286 235 235
208 198 195 193 192 189 193 198 201 197 185 207 250 216 202 203 212 213 217 235 254 269 272 275 268 267 281 290 286 374 420 443 443 363 444 434 422 336 321 298 302 303 299
196 191 193 195 194 193 197 196 193 202 229 248 217 201 203 218 219 226 249 261 271 270 271 272 278 308 362 426 446 443 435 425 418 419 421 426 437 442 437 409 330 323 280
188 195 209 198 204 191 197 194 214 252 241 207 207 204 218 220 230 261 261 267 261 288 284 297 300 363 446 443 427 412 406 410 458 454 456 460 466 473 476 478 472 355 336
195 200 195 195 194 195 209 219 234 222 207 205 211 217 219 232 257 271 260 268 294 309 344 349 456 445 432 409 400 428 450 431 414 410 410 411 411 417 428 441 449 454 458
201 195 195 196 205 206 217 232 234 206 210 213 217 226 251 252 266 270 269 278 303 317 386 461 441 425 397 389 441 416 407 387 368 364 364 365 372 395 401 409 421 429 438
195 196 205 209 206 216 230 223 207 210 215 216 229 254 260 266 264 265 285 294 336 427 453 435 418 394 382 427 404 376 357 354 357 360 363 367 369 368 362 386 395 404 414
193 207 204 203 214 218 226 206 215 211 215 245 254 264 262 254 275 288 309 376 429 435 433 418 388 377 418 398 367 349 346 340 335 337 342 345 354 364 369 372 368 387 394
205 196 203 215 218 233 213 216 212 229 253 251 260 257 267 274 281 309 413 429 420 426 416 389 377 367 396 364 343 338 331 327 327 326 330 441 244 422 409 379 370 371 373
198 211 210 220 236 227 211 211 231 255 257 261 261 274 279 279 291 426 417 429 422 409 387 375 367 404 375 347 337 327 321 320 321 325 366 400 386 398 405 85 417 385 373
215 206 223 239 221 210 206 236 257 265 258 259 273 280 297 301 425 430 427 420 404 386 372 363 362 379 356 341 329 323 319 316 318 322 439 412 405 393 324 400 409 412 425
220 223 235 245 211 222 245 256 260 264 263 268 273 289 435 438 427 423 413 402 386 369 361 354 387 364 345 334 325 321 310 309 314 321 391 371 366 361 365 368 374 384 395
213 220 246 222 228 245 252 260 262 273 276 277 282 422 420 425 414 405 400 385 366 362 355 361 369 355 336 328 317 314 310 308 314 316 373 350 353 352 355 359 360 361 371
219 231 234 233 241 247 264 261 267 276 281 298 413 415 422 406 395 395 385 366 358 357 351 374 363 347 332 328 314 309 309 311 310 318 368 345 355 349 361 358 360 370 378
237 234 240 240 246 269 256 266 278 283 311 415 414 412 402 390 389 383 368 357 353 350 344 370 355 343 329 325 314 308 308 306 309 320 369 346 341 347 354 358 356 358 457
230 238 242 245 271 264 266 274 294 391 412 395 417 402 399 385 378 376 358 351 348 344 378 363 350 343 328 325 319 317 311 311 309 326 365 343 340 353 356 351 355 480 474

GFSMA_2pvu_pres_063.txt.gz
Presure
201 134 171 203 202 195 187 188 186 188 204 195 193 192 192 194 194 193 230 214 205 215 206 243 234 231 247 261 224 236 236 236 229 205 218 218 239 236 206 227 195 213 203
161 202 206 183 202 186 191 188 195 203 194 194 200 194 192 193 192 220 214 209 215 231 227 220 227 237 238 226 224 231 247 233 229 247 240 207 208 215 202 217 215 189 213
217 193 191 185 185 186 193 206 197 194 195 192 187 191 189 216 197 211 198 225 220 210 203 217 225 219 236 227 216 212 217 220 239 236 260 235 244 194 235 217 196 210 205
176 191 178 189 187 199 199 203 192 184 193 193 197 225 214 209 195 218 214 209 207 204 198 201 226 248 242 239 238 222 216 213 213 208 209 227 201 244 219 210 211 227 200
188 199 199 212 201 195 195 188 192 191 191 206 232 203 205 219 214 209 211 204 196 188 193 194 252 244 240 237 229 235 233 223 219 213 208 207 206 160 221 243 201 221 203
205 202 203 192 193 177 185 192 192 204 217 206 197 221 214 213 204 206 199 202 205 200 196 219 231 227 225 226 232 227 224 227 227 224 216 214 215 216 195 215 233 210 213
198 194 186 186 193 195 203 196 214 205 195 217 215 199 204 196 199 202 203 202 202 195 217 224 217 211 209 210 208 209 211 218 224 220 218 216 222 216 205 213 213 212 216
188 189 195 194 201 217 221 206 194 217 209 203 193 191 192 197 206 205 200 194 198 243 226 217 207 208 214 217 215 217 222 221 212 206 212 218 218 214 208 220 222 222 194
194 199 214 225 214 205 193 197 208 198 197 199 197 200 192 195 196 193 193 237 245 225 217 209 208 215 225 226 230 234 243 245 245 250 243 235 230 227 227 226 222 228 233
222 223 208 201 194 196 204 203 193 199 191 199 207 198 197 191 198 208 234 228 216 208 205 210 213 219 223 230 241 260 264 268 275 277 284 270 266 256 251 245 243 242 197
210 200 194 195 216 208 204 198 196 187 192 206 191 194 193 201 212 234 245 209 203 209 211 213 223 227 239 265 269 275 277 280 284 288 306 307 308 311 302 279 262 255 245
194 196 213 209 202 201 201 201 201 207 193 195 195 201 203 222 230 217 213 209 211 214 220 231 247 270 267 267 271 273 284 292 302 450 468 474 368 350 480 370 324 322 271
204 203 204 198 199 200 203 198 196 194 195 197 207 211 216 234 221 216 215 219 217 238 251 264 267 272 270 272 289 375 450 448 452 457 456 446 440 439 445 454 464 435 327
203 204 211 215 207 197 192 198 200 193 207 202 213 229 232 232 220 222 215 231 267 263 260 264 269 284 300 293 432 428 444 446 434 421 411 409 434 480 486 490 428 430 441
208 203 199 192 190 203 198 194 208 205 212 215 239 239 235 222 219 221 258 266 263 261 269 275 296 335 428 438 443 435 431 423 403 373 398 433 424 423 428 434 441 451 462
191 192 196 205 202 192 198 206 210 215 221 223 246 246 209 221 234 261 265 261 273 286 293 320 400 436 423 438 432 421 406 391 387 417 414 388 375 373 373 374 384 410 425
193 195 206 200 195 203 204 214 210 217 220 230 239 207 222 247 270 258 265 276 290 300 333 437 440 443 430 429 416 394 385 379 415 394 371 362 359 354 353 355 361 372 374
204 196 195 200 201 219 211 211 215 224 233 247 203 228 253 275 263 269 283 298 329 385 443 446 430 425 416 406 387 380 372 408 385 360 349 341 338 338 340 341 344 351 367
194 199 202 195 213 203 212 216 228 254 227 227 249 259 267 270 272 281 296 353 443 446 432 423 415 407 392 378 373 369 398 381 362 347 334 327 329 330 330 334 338 425 454
197 200 190 210 212 217 219 233 227 219 248 251 260 270 272 271 282 297 432 429 426 423 413 404 398 386 373 368 366 392 376 365 347 338 325 325 324 324 331 336 451 447 401
197 193 207 217 220 220 240 223 225 246 252 259 272 266 276 292 305 439 421 417 413 399 395 392 383 368 363 360 365 384 369 344 337 329 321 327 316 322 329 391 397 400 405
202 201 223 222 225 243 221 240 249 250 262 271 263 268 298 400 423 409 401 415 399 391 386 383 365 360 357 355 382 365 358 341 333 326 317 323 316 323 323 393 373 367 368
201 218 224 228 210 222 247 247 254 272 268 270 278 314 424 418 397 372 409 405 395 387 384 365 356 356 350 380 368 353 348 333 330 321 313 318 319 320 322 379 361 358 359
214 221 234 212 226 238 250 257 265 257 273 289 336 421 411 387 364 412 395 390 390 382 373 359 353 350 352 372 359 346 339 328 327 322 301 311 320 326 323 375 357 350 354
221 237 214 229 234 250 257 260 281 266 278 380 415 406 374 362 403 400 376 366 387 372 365 355 352 346 344 369 354 342 336 326 325 325 317 325 327 331 380 369 349 343 359
235 217 232 231 255 253 263 286 270 279 354 418 393 361 376 398 391 389 360 359 379 367 360 352 349 344 377 364 349 339 329 325 326 322 319 327 336 322 364 354 343 349 371

GFSMA_2pvu_pres_069.txt.gz
Presure
124 128 116 118 126 126 131 127 212 171 207 176 224 208 193 205 209 198 189 197 216 220 218 211 199 205 197 213 210 210 208 206 206 207 209 212 216 217 197 265 242 239 254
112 122 125 224 204 129 125 186 199 211 202 224 202 203 209 205 195 192 196 223 215 214 192 202 206 206 206 202 208 204 212 221 214 205 203 203 220 254 266 268 254 245 251
132 123 119 202 123 189 187 191 218 199 215 194 207 198 197 191 192 194 213 219 206 197 197 196 208 209 204 204 194 202 212 207 207 208 214 224 228 266 249 238 263 257 233
212 207 202 170 187 187 187 189 196 204 199 205 203 199 192 193 195 221 213 198 203 205 214 211 209 204 203 211 213 209 206 205 209 218 224 217 245 267 249 232 218 242 256
157 126 181 187 183 204 202 208 205 197 197 205 198 192 194 208 220 203 208 203 214 215 207 209 215 216 210 204 206 204 206 214 215 207 214 243 245 233 231 217 215 206 219
204 179 182 180 204 211 197 206 209 205 199 193 191 205 221 196 207 210 209 209 208 212 215 215 199 200 205 203 203 212 216 209 204 231 245 240 237 232 225 221 219 223 209
193 181 217 205 202 205 208 196 194 191 191 203 220 195 202 196 208 207 206 215 222 212 197 203 206 215 198 209 213 206 208 217 228 233 248 238 235 231 219 216 220 221 225
209 206 215 202 197 193 188 197 199 209 209 197 209 201 201 209 216 216 204 194 197 206 212 212 202 208 207 212 217 220 221 238 241 252 254 246 244 229 224 214 210 220 226
198 187 186 191 198 197 200 214 210 204 204 196 200 204 211 207 199 199 201 204 208 207 205 206 203 204 217 218 225 244 258 252 258 246 241 231 234 236 237 230 227 229 229
199 198 196 191 197 207 207 201 208 197 196 199 204 208 197 198 200 200 195 200 201 206 203 193 203 230 234 246 246 238 234 236 245 253 256 257 255 255 255 261 258 258 255
193 203 204 199 210 204 204 207 195 196 196 203 195 189 193 200 200 194 204 208 206 200 196 221 235 231 233 221 234 244 261 273 290 291 290 291 292 291 289 290 288 295 293
206 203 209 207 203 208 199 196 195 195 201 194 189 192 197 192 203 202 203 208 196 201 242 236 231 233 240 245 282 296 296 293 286 283 293 325 321 331 314 317 312 299 291
204 207 205 205 205 196 197 195 199 202 193 186 192 195 192 208 207 208 208 196 223 236 227 237 245 244 277 305 291 286 292 406 470 469 462 459 456 452 451 458 458 460 466
203 203 206 196 197 195 194 198 197 190 184 189 195 206 206 199 206 202 198 239 234 228 250 245 250 302 303 290 287 375 461 451 442 429 438 440 449 451 453 453 455 456 462
205 202 197 199 195 202 195 190 192 185 197 210 206 199 205 203 207 224 237 236 246 251 243 282 298 300 286 314 447 424 404 408 440 434 429 427 432 431 432 433 433 436 438
202 201 198 199 196 185 190 193 185 205 202 197 206 205 204 201 224 235 245 242 248 248 277 290 305 292 350 427 408 416 432 424 414 408 410 414 412 409 404 402 400 400 401
197 199 200 197 186 193 191 194 202 199 196 205 204 206 198 225 234 246 240 243 249 269 289 305 297 315 415 411 429 428 418 410 406 401 399 395 383 381 383 385 386 387 389
201 203 187 187 191 197 201 201 196 202 203 199 209 234 226 230 246 242 254 247 260 285 299 303 302 412 402 418 421 409 395 398 397 396 381 374 371 374 375 376 376 414 407
194 186 191 193 198 195 197 196 201 204 203 211 222 224 226 245 242 261 245 259 281 296 305 304 409 399 402 409 408 392 375 397 392 377 372 370 369 376 403 402 396 389 370
190 184 196 193 197 197 187 196 192 212 214 224 227 219 240 242 259 243 257 276 293 305 300 372 402 391 407 398 394 372 384 389 376 373 369 367 399 386 382 384 381 362 356
199 194 199 201 185 194 196 201 211 215 223 231 213 240 242 253 243 256 274 288 313 298 369 404 389 406 398 382 383 362 387 379 367 370 362 395 382 370 369 369 360 350 346
201 197 183 201 193 204 209 209 211 217 228 208 240 241 258 240 256 273 288 315 295 357 405 393 399 391 376 368 373 356 377 372 365 365 388 383 377 366 360 354 350 343 334
186 187 194 202 209 207 213 207 220 228 225 244 240 246 240 258 269 288 313 296 352 406 396 395 389 374 364 358 368 353 364 370 363 362 385 368 369 362 356 344 338 336 338
200 199 200 208 206 211 205 221 225 235 247 241 240 240 260 266 288 311 297 363 408 399 395 390 377 370 363 355 363 352 355 364 361 360 396 367 361 359 356 344 337 334 335
198 196 206 209 211 200 223 223 234 250 243 238 238 259 272 290 306 294 367 414 403 394 390 377 373 409 397 361 355 349 350 359 353 352 395 375 348 348 349 338 338 336 339
192 204 207 218 209 221 223 235 252 245 246 239 260 275 289 301 306 360 416 403 394 387 386 401 435 425 402 362 346 348 342 354 349 345 389 363 349 336 340 337 339 332 325

GFSMA_2pvu_pres_072.txt.gz
Presure
121 116 125 128 121 115 125 124 134 119 196 178 134 161 205 216 200 209 203 207 205 198 195 200 205 220 208 209 215 220 220 215 213 212 209 219 220 221 215 214 206 212 208
121 129 123 121 126 130 130 131 133 128 185 157 200 214 198 207 215 201 212 203 196 197 206 222 223 199 215 215 217 216 215 216 223 222 211 207 209 214 206 206 220 229 226
195 139 125 126 130 122 135 127 119 193 215 200 188 209 206 214 210 204 197 195 196 211 225 199 217 212 212 212 213 218 218 211 198 203 211 212 205 215 225 226 217 210 221
130 125 131 120 133 179 134 134 197 205 157 192 212 211 212 198 194 198 201 217 217 201 199 212 216 216 218 215 198 193 201 209 215 213 202 208 213 217 213 222 226 229 247
126 134 131 172 139 130 129 193 166 189 184 206 204 199 195 199 200 206 215 199 202 207 205 212 216 201 201 205 207 206 212 212 208 205 204 205 212 219 220 226 229 231 240
131 126 139 131 132 143 190 201 174 186 212 201 200 202 203 204 218 203 208 194 193 213 212 199 202 205 206 200 204 207 210 209 202 199 201 211 224 225 226 224 233 248 251
141 210 131 197 190 189 204 205 215 200 197 201 199 205 220 212 204 198 194 206 210 200 192 201 201 202 212 209 204 210 210 195 200 206 211 231 233 236 231 249 259 251 230
187 199 202 207 198 199 208 222 204 203 200 204 206 207 208 205 191 191 205 207 199 195 201 202 198 209 211 208 210 201 203 208 237 243 239 234 231 226 235 233 227 232 233
200 197 202 196 206 214 197 192 195 203 207 202 217 206 201 194 199 207 204 195 193 197 196 204 210 205 206 206 203 207 240 239 237 231 246 243 241 241 244 242 245 241 246
201 197 183 213 213 202 207 213 206 204 219 209 204 194 192 198 206 201 196 191 190 193 208 209 201 208 203 204 215 241 239 238 250 246 244 243 246 285 277 276 280 279 272
199 214 216 204 200 204 201 207 210 213 209 207 197 197 197 201 191 195 189 190 197 210 204 210 208 207 202 226 250 245 249 245 250 255 306 321 319 314 308 311 319 295 297
211 195 204 209 209 217 211 207 207 212 198 198 194 202 195 191 195 188 197 207 200 209 207 205 220 229 237 252 252 258 250 257 282 328 322 318 407 484 485 484 481 452 354
201 201 206 208 208 205 199 216 208 199 202 195 203 193 195 193 192 201 202 203 212 207 205 212 229 247 255 255 261 254 262 310 330 319 446 444 436 424 414 415 435 454 465
209 200 203 204 201 202 218 202 197 196 200 201 191 192 193 196 203 201 205 204 204 217 242 238 247 256 254 249 260 264 319 329 315 443 443 454 453 449 451 447 445 444 450
203 203 202 196 206 214 201 199 195 204 199 192 193 195 200 204 198 202 201 213 225 234 235 219 254 254 248 261 268 323 335 319 431 431 437 436 426 426 422 420 419 423 428
200 195 213 217 206 200 196 198 202 186 191 194 196 200 204 200 201 206 216 220 232 244 243 250 248 251 259 269 322 330 318 425 418 425 421 409 398 409 409 409 410 413 414
215 211 201 194 196 195 196 193 191 197 195 197 205 194 203 203 215 207 218 227 237 253 253 246 248 256 270 316 330 323 425 410 421 407 402 388 386 401 401 393 389 388 389
194 199 191 195 193 192 199 198 201 196 203 188 206 202 210 211 205 213 225 235 250 256 246 249 255 267 315 324 322 420 407 414 404 393 386 370 396 388 380 377 379 384 384
194 194 193 200 205 198 195 199 195 201 185 196 204 203 208 209 211 223 233 247 258 243 248 257 276 307 325 318 421 409 402 400 384 383 379 374 386 375 370 374 375 409 413
196 198 199 197 202 204 207 207 210 209 202 201 200 209 211 218 224 229 245 257 243 245 254 281 301 330 315 420 412 399 395 385 374 373 371 369 381 369 368 374 390 387 393
197 196 199 198 200 205 205 211 203 202 198 197 201 214 222 226 233 242 257 241 244 252 284 299 337 323 422 410 401 396 385 377 368 367 366 367 373 366 366 387 374 378 376
198 198 204 204 205 194 213 194 203 201 197 195 216 215 228 235 245 257 240 244 249 279 303 336 320 424 409 397 395 385 377 373 369 367 362 363 370 368 366 396 376 365 369
203 206 207 208 196 213 215 201 198 195 210 215 218 228 235 249 253 241 245 248 278 304 334 316 425 405 398 395 396 384 381 389 385 365 359 354 365 361 367 389 371 364 358
202 195 208 202 214 206 197 193 205 207 217 223 231 235 249 241 243 241 256 284 305 335 324 425 406 410 425 428 419 417 423 409 383 361 355 351 361 357 366 392 361 355 358
202 206 189 209 201 199 193 208 206 221 224 238 234 247 232 241 241 255 284 303 334 355 423 409 438 416 416 427 415 406 415 402 374 355 349 347 357 353 389 383 351 349 350
196 214 201 213 203 198 213 207 235 206 242 235 249 229 238 242 252 286 305 333 337 420 415 434 404 383 383 407 393 388 410 391 367 349 343 353 353 353 384 373 345 340 340

GFSMA_2pvu_pres_075.txt.gz
Presure
170 116 131 121 121 110 129 124 121 108 126 123 125 128 128 139 121 166 140 186 212 218 208 196 203 210 223 212 206 204 213 228 219 212 207 203 202 208 208 202 199 206 210
127 130 115 126 116 115 123 125 142 123 128 129 132 141 143 139 149 199 191 184 213 207 196 203 215 218 201 209 200 199 222 205 204 208 208 208 204 204 208 218 209 210 207
135 113 125 116 111 121 173 133 119 133 128 132 190 136 135 176 206 195 183 217 201 205 207 220 210 207 206 195 199 214 197 195 207 201 208 211 209 208 217 219 217 207 202
124 137 109 118 125 111 126 133 140 122 147 123 140 157 203 189 190 201 216 205 199 221 209 209 210 202 196 200 212 201 197 204 196 207 212 209 213 213 207 203 198 202 210
114 135 126 122 126 132 171 186 198 153 138 208 200 193 195 206 223 209 209 210 207 214 214 208 201 200 209 212 202 194 203 201 211 213 203 208 204 201 206 207 212 216 220
142 141 132 134 128 125 132 125 144 205 200 193 194 197 210 208 198 200 209 202 218 203 205 199 198 208 206 200 195 200 202 212 202 210 209 206 201 203 207 218 230 247 246
171 126 131 122 130 131 140 195 190 196 215 193 204 208 213 211 219 211 207 219 211 198 197 199 211 201 205 195 196 203 211 201 209 205 203 206 206 207 222 243 245 241 245
122 143 134 119 125 156 201 202 208 189 192 208 214 207 208 207 209 203 207 207 202 195 197 211 192 198 195 195 206 199 203 207 211 204 213 226 227 247 249 250 251 250 243
131 125 127 179 188 199 200 184 192 206 218 214 210 215 203 212 206 220 205 200 195 200 204 196 195 195 197 204 196 206 197 207 214 238 234 228 248 252 259 250 244 248 250
145 180 194 194 194 205 196 194 211 214 206 210 236 208 205 210 219 201 203 203 205 203 191 193 197 196 201 195 202 211 213 216 238 248 257 254 252 241 246 257 261 259 265
208 205 214 209 192 194 221 210 208 202 209 205 210 203 213 206 200 197 200 203 200 197 195 201 196 204 200 204 215 213 227 238 261 260 251 245 249 260 268 280 356 353 344
196 198 211 222 211 216 213 211 213 203 206 207 205 212 210 202 201 203 203 195 191 198 200 200 217 205 216 215 219 224 240 259 264 251 254 263 270 337 353 387 468 459 456
207 218 217 210 209 208 209 206 207 204 206 206 223 201 203 202 198 193 192 201 202 201 203 205 216 220 213 224 225 241 259 259 250 258 271 305 364 349 463 450 448 452 454
207 211 210 212 209 206 207 210 204 202 208 224 200 199 195 200 198 201 198 199 201 205 210 211 217 214 234 236 241 263 257 255 263 280 315 354 380 451 443 444 438 433 432
213 206 206 205 206 207 195 201 206 217 197 204 196 194 203 197 196 200 200 209 218 211 205 208 216 227 241 248 268 251 258 265 289 339 352 363 441 432 430 420 416 410 409
206 207 214 206 192 199 206 209 213 200 205 195 197 197 194 196 202 209 217 208 208 213 208 216 224 244 245 266 251 257 265 292 343 344 427 428 424 422 405 404 398 387 412
208 203 208 222 219 216 223 198 196 202 198 201 204 202 205 214 206 215 206 200 215 214 222 220 245 244 265 243 257 262 292 348 343 439 432 420 416 403 390 397 383 402 403
207 221 231 207 207 206 203 201 200 198 202 201 200 206 213 194 219 215 204 211 219 217 224 245 243 259 241 257 262 294 351 338 438 426 416 411 406 392 377 381 375 398 390
231 231 208 207 205 201 203 201 202 198 203 204 207 213 211 221 208 203 205 216 216 226 249 252 259 243 258 259 286 347 333 442 427 412 404 399 397 380 373 374 373 388 382
206 200 197 199 201 202 196 198 195 202 200 202 207 201 219 203 202 208 215 218 227 251 253 256 243 256 259 289 305 337 434 423 414 406 404 397 387 375 372 371 370 379 372
200 198 195 194 193 190 193 195 196 198 204 204 203 210 201 207 210 214 221 227 249 251 254 240 255 258 284 294 342 430 414 439 441 433 425 407 392 396 377 366 365 343 367
195 195 195 196 197 198 196 194 204 205 190 214 205 201 208 221 217 228 231 249 248 248 235 249 253 274 300 337 428 419 440 431 414 427 423 414 416 403 379 362 364 367 363
199 201 203 206 207 208 206 205 197 208 208 204 209 182 224 222 237 257 250 252 251 236 245 253 272 300 297 426 419 422 408 393 389 421 415 415 411 392 372 356 362 364 359
201 198 203 209 211 212 211 213 210 211 218 180 225 229 240 254 244 249 251 240 238 247 256 282 304 334 326 424 415 412 390 377 371 396 395 413 399 378 363 349 362 354 357
207 206 206 217 215 213 217 217 222 228 236 235 252 254 240 244 252 242 233 239 248 251 275 294 337 321 424 440 419 399 379 372 374 374 368 410 386 368 355 348 358 349 392
228 228 234 232 235 236 240 242 245 252 260 247 240 257 253 247 232 229 243 248 251 275 296 329 323 425 402 394 409 396 376 419 383 362 354 400 375 361 344 341 353 349 370

GFSMA_2pvu_pres_081.txt.gz
Presure
222 216 151 177 153 207 174 138 173 132 125 119 125 163 147 125 131 135 158 112 122 115 117 133 118 158 154 209 213 200 209 219 211 236 226 226 218 213 209 217 200 211 206
189 126 160 131 125 130 189 164 161 127 126 127 191 133 136 161 119 112 128 126 115 121 130 124 129 193 209 205 196 214 222 222 219 219 220 214 211 210 214 204 204 198 212
131 190 132 127 185 130 125 126 113 126 198 134 130 128 192 121 132 135 169 134 115 127 126 135 186 204 201 201 214 221 217 216 225 218 210 216 214 221 211 201 203 206 206
182 127 163 128 190 125 128 142 124 131 112 123 145 135 130 181 129 118 168 137 127 128 192 203 203 194 203 210 227 208 210 235 218 215 207 213 212 204 202 205 212 205 210
119 128 189 175 132 131 130 198 157 128 161 120 132 125 112 128 135 176 125 119 136 211 193 206 198 222 223 215 214 217 231 218 216 213 210 206 202 210 212 211 200 208 207
183 126 144 124 168 198 177 154 152 116 178 113 111 135 185 188 127 129 136 192 196 202 202 196 202 209 217 211 209 230 214 217 211 208 206 207 208 206 207 194 204 215 209
195 130 150 207 207 194 197 204 202 197 191 189 213 127 156 192 194 204 207 200 195 199 209 217 200 217 216 207 225 205 212 212 206 213 204 204 206 208 200 213 219 210 207
187 180 183 187 118 144 188 191 180 130 200 162 172 148 182 143 205 201 199 195 205 206 196 219 218 213 205 214 204 206 204 207 207 205 207 207 205 199 218 217 208 209 212
129 190 151 189 158 127 206 210 198 191 140 157 192 204 205 198 203 194 211 206 205 216 217 207 206 202 214 211 206 210 207 204 208 207 212 192 220 222 223 206 209 230 254
207 143 127 127 129 173 190 194 196 192 189 188 205 198 202 205 200 206 201 226 212 207 215 206 211 221 223 209 208 206 206 206 207 216 227 217 221 210 205 228 275 268 263
184 198 194 202 202 199 189 188 189 213 205 202 203 202 203 210 205 226 211 215 216 208 220 234 233 217 212 208 210 206 204 212 216 216 203 213 222 250 275 277 253 275 266
194 186 192 193 193 193 198 205 213 202 201 202 210 212 210 223 215 210 208 201 199 210 216 211 209 211 211 214 211 212 224 212 205 219 223 244 263 274 257 270 268 255 257
204 205 205 204 205 207 200 201 203 223 217 221 222 223 218 217 220 196 203 208 202 213 208 209 206 208 206 212 224 224 227 228 221 236 250 272 263 255 266 250 252 272 289
200 198 197 199 198 203 216 206 207 207 217 218 217 212 214 199 201 205 230 219 210 208 204 206 206 211 225 224 225 225 223 240 245 264 276 250 269 252 245 247 268 348 375
221 222 218 207 214 228 227 217 212 215 213 216 217 200 201 206 201 205 212 210 206 208 206 223 216 218 208 209 229 236 244 256 248 273 262 255 254 243 262 285 382 376 387
204 212 231 226 218 214 210 205 215 213 206 212 208 209 223 212 212 211 217 220 226 226 209 214 210 221 221 232 244 253 262 270 259 258 253 242 243 266 297 304 383 396 449
217 221 220 214 211 216 218 207 204 208 207 206 229 208 207 216 223 220 219 222 213 203 222 218 221 228 242 240 256 259 265 240 256 244 248 244 271 296 308 376 375 450 445
217 218 226 224 212 212 207 205 208 208 210 210 214 216 219 216 217 216 212 216 222 219 227 233 238 228 236 265 263 248 255 249 241 243 258 274 295 282 374 370 457 426 428
206 227 211 202 206 204 201 202 204 204 205 219 218 211 215 214 217 220 222 227 231 234 226 225 238 235 261 250 239 251 240 237 251 252 271 288 294 371 372 425 402 429 410
217 210 206 209 213 207 207 210 214 213 213 215 200 217 220 224 228 232 229 234 244 238 235 250 266 256 235 248 242 240 238 253 260 271 284 300 356 372 428 408 411 413 391
217 218 224 223 226 225 224 222 223 223 225 227 230 234 209 223 230 232 235 244 269 269 268 261 238 241 242 232 236 250 253 268 278 280 299 327 364 408 415 396 425 405 390
251 256 251 242 246 246 242 238 238 236 233 228 228 225 227 235 289 280 272 266 231 236 238 249 248 234 239 245 254 264 269 276 278 294 317 365 351 415 396 427 410 394 403
249 241 236 236 230 238 239 232 204 246 252 252 243 257 245 246 243 243 249 246 242 240 244 248 248 249 253 258 263 270 285 277 289 308 357 306 418 398 389 415 394 398 395
218 215 223 222 219 234 226 239 235 237 245 239 265 270 270 240 253 249 258 252 246 250 257 253 252 258 259 265 269 281 273 293 301 345 350 423 405 384 392 392 375 406 381
228 216 220 208 207 222 212 233 228 208 229 223 227 232 265 264 259 243 251 256 251 249 251 251 253 262 265 273 275 272 291 304 350 364 418 418 392 380 382 378 363 393 369
218 221 219 225 214 240 223 236 241 216 254 225 257 268 254 249 248 235 240 258 259 253 253 259 259 261 271 271 269 293 305 334 353 432 405 404 385 375 372 366 356 351 369

GFSMA_2pvu_pres_084.txt.gz
Presure
132 135 191 182 193 187 181 149 121 128 164 120 131 126 213 129 124 129 126 130 171 200 180 129 127 128 136 162 152 190 122 133 183 202 218 232 217 217 234 233 217 210 208
197 125 206 171 153 180 188 187 171 195 148 130 184 173 159 131 126 143 193 194 127 118 127 162 124 141 123 140 141 124 133 202 205 216 211 231 223 225 229 214 215 210 210
182 216 202 161 220 206 182 127 121 128 184 129 130 130 124 125 107 116 136 137 120 138 112 121 123 132 146 124 140 200 204 208 210 205 214 219 213 236 221 227 216 214 207
166 178 168 126 128 140 154 192 127 127 130 124 124 170 132 132 136 124 120 195 112 119 172 190 193 174 210 148 201 202 213 214 212 220 222 216 231 224 223 219 213 214 214
180 194 180 117 194 186 172 127 132 132 189 135 132 132 164 192 157 161 165 155 200 194 165 189 200 168 196 201 197 212 216 210 220 212 219 223 227 217 217 213 214 213 210
172 125 174 175 190 181 181 180 139 183 168 131 192 208 193 144 179 194 192 193 137 169 176 196 204 200 202 195 212 212 226 220 210 219 205 232 225 216 215 212 216 214 212
181 173 172 130 171 189 157 196 142 136 200 146 195 140 127 202 205 209 195 141 194 185 201 204 202 200 198 210 204 219 202 218 209 208 229 221 214 209 213 212 207 215 218
176 191 203 186 202 183 160 124 136 200 177 184 122 118 165 189 176 143 189 192 208 206 198 202 199 215 198 218 217 214 210 200 218 228 216 212 209 210 207 205 217 218 218
184 127 130 171 169 176 159 205 128 124 167 172 207 205 194 192 190 185 191 198 202 200 201 212 196 220 210 200 213 209 202 205 213 214 214 208 207 209 207 222 224 232 235
166 187 183 130 208 207 135 159 208 198 207 195 187 186 191 183 188 200 198 205 197 215 225 216 217 208 213 207 203 234 218 215 215 207 207 206 208 217 231 245 260 275 275
189 185 124 120 123 200 197 207 199 197 184 194 202 209 204 204 204 199 210 234 203 225 214 204 214 208 204 205 207 213 210 211 206 212 220 212 227 245 254 269 273 278 275
216 215 196 203 199 200 207 213 201 195 196 196 197 189 197 199 207 218 220 219 216 213 214 216 207 208 222 213 212 209 211 210 218 221 238 242 246 234 263 267 256 253 266
216 204 213 204 202 202 198 197 204 212 199 195 196 221 218 213 222 220 211 212 212 210 205 210 209 209 206 217 223 222 222 238 235 239 247 231 242 267 264 246 254 260 251
214 208 201 201 203 198 204 202 203 226 225 208 205 221 219 215 223 211 215 207 212 212 204 208 208 213 220 226 228 232 236 237 231 239 239 240 264 265 242 260 251 253 261
224 227 225 226 229 227 227 224 212 210 211 216 212 208 205 221 219 212 214 210 221 216 207 218 220 222 224 224 232 230 244 244 243 245 262 263 260 250 258 245 253 264 277
227 227 226 229 234 235 235 227 219 216 205 208 210 214 214 212 198 205 206 220 213 211 219 218 221 211 226 229 243 238 239 252 266 260 257 252 250 250 249 257 272 288 288
218 215 223 216 227 232 198 239 208 205 231 204 201 204 205 221 204 204 213 218 221 224 223 223 227 236 229 236 237 270 267 264 238 243 246 245 252 260 265 275 288 284 333
226 216 201 199 229 222 221 209 210 207 207 214 214 213 213 215 221 226 225 226 227 231 241 233 229 236 257 264 249 238 239 253 244 251 253 268 265 264 281 275 301 320 372
188 198 216 205 198 198 202 217 213 211 217 213 223 227 228 227 228 236 242 242 239 245 251 252 256 242 231 237 248 252 260 258 258 265 260 264 273 277 274 296 314 362 370
207 198 209 212 210 211 219 218 217 224 246 246 244 245 240 236 234 244 244 237 233 242 262 272 271 258 265 261 264 246 257 259 262 263 266 272 274 275 289 303 342 401 432
200 205 207 209 202 209 190 218 254 246 240 233 228 232 208 204 204 232 230 237 220 249 257 258 251 254 242 243 248 264 266 261 264 259 274 267 276 290 295 316 400 430 418
214 216 205 214 223 202 223 225 225 223 218 224 216 216 233 224 252 258 246 219 228 252 212 267 261 260 250 243 260 258 264 260 264 267 267 279 288 290 308 386 436 418 405
240 161 247 240 165 226 228 217 211 221 218 219 217 215 233 217 252 254 238 252 245 255 257 265 261 254 257 261 261 263 259 264 270 261 280 290 289 300 354 433 422 409 396
160 191 233 229 237 242 236 229 219 216 220 228 216 225 219 250 240 243 243 248 246 249 255 264 240 252 255 257 259 263 265 263 272 270 288 287 299 359 437 433 417 403 388
191 231 228 226 232 233 229 228 235 238 231 212 234 234 229 240 238 234 261 262 259 258 261 244 251 255 255 258 262 265 263 275 276 280 286 305 322 436 452 432 413 398 384
221 216 229 233 230 229 234 230 228 233 225 221 236 244 245 237 238 235 255 268 268 237 247 253 252 260 259 257 257 263 272 276 279 289 305 320 423 370 375 430 408 390 381

GFSMA_2pvu_pres_087.txt.gz
Presure
180 188 191 172 186 177 164 217 171 175 147 180 210 194 200 187 126 150 122 156 127 208 172 130 133 152 125 202 187 153 138 114 122 162 189 206 201 210 214 209 227 229 207
168 168 193 205 141 138 195 194 184 205 203 187 193 196 140 119 162 186 171 166 204 162 135 170 118 142 116 117 198 140 124 174 144 189 169 181 203 215 219 226 229 213 224
162 184 175 158 199 118 138 183 193 135 174 153 137 130 152 178 127 144 192 143 131 133 163 130 146 195 200 119 122 191 207 211 205 208 198 205 216 208 222 219 217 216 206
126 191 159 189 175 173 165 162 169 185 187 173 187 181 128 183 130 148 135 132 130 132 173 192 202 124 139 193 212 169 206 203 198 198 214 214 206 225 232 224 206 200 240
130 125 127 173 174 174 169 144 157 130 166 157 164 157 172 121 114 163 140 131 124 174 157 211 188 197 156 188 176 199 202 199 212 207 211 218 221 207 215 209 208 230 218
188 171 183 171 191 175 175 139 171 168 163 193 141 145 172 177 150 146 167 203 182 145 181 194 198 197 194 203 199 205 202 206 214 225 228 222 219 216 206 246 238 208 213
166 125 125 127 170 172 165 183 187 192 178 198 184 201 125 119 200 192 217 216 133 197 196 196 195 209 200 198 204 217 212 205 227 223 219 226 204 207 206 212 211 212 212
187 200 184 175 181 165 170 179 177 191 183 191 179 137 187 203 174 140 137 199 194 198 201 207 200 194 195 199 204 218 221 217 220 218 213 207 213 216 206 212 215 216 215
168 170 147 176 172 172 157 126 188 170 190 175 194 207 144 162 195 201 213 198 198 199 189 194 197 206 212 214 221 208 213 208 214 209 214 207 209 215 218 216 213 211 230
163 186 134 128 123 166 169 197 180 118 125 120 167 202 208 202 204 199 193 205 199 200 195 213 212 204 215 214 207 214 206 209 208 206 204 208 213 215 231 231 230 244 251
173 169 172 186 185 179 183 181 198 173 211 221 211 202 201 198 195 203 203 202 210 224 216 218 230 213 209 218 208 198 207 209 208 216 215 221 225 230 232 241 242 269 282
172 168 146 173 152 168 175 210 202 212 220 213 155 207 202 201 193 200 217 213 213 221 224 212 226 218 211 199 206 214 210 215 224 230 229 234 241 241 244 268 272 265 250
183 173 177 192 190 183 212 218 217 224 216 214 210 214 220 214 212 210 221 226 213 208 217 208 212 210 223 220 218 224 230 231 235 237 248 248 244 259 242 248 250 261 263
190 188 178 185 183 211 214 215 210 221 224 223 215 224 231 229 218 210 199 203 218 207 201 204 218 224 225 229 231 230 232 246 246 244 252 258 261 236 250 252 257 265 259
209 213 219 222 219 211 215 233 234 236 238 233 219 214 222 223 207 198 199 207 209 213 214 240 227 229 229 229 241 241 248 257 242 250 263 267 258 266 267 240 255 255 270
218 219 214 222 223 225 221 234 260 226 208 206 205 211 200 199 219 228 225 223 221 230 233 235 236 238 234 232 240 234 230 231 224 216 252 266 260 256 244 246 233 273 273
236 226 212 214 223 247 237 223 214 223 198 226 226 223 214 217 210 212 240 255 241 241 235 220 218 205 216 231 236 235 250 253 238 258 228 248 244 251 241 237 274 269 272
213 214 209 225 226 208 201 217 208 194 217 205 206 207 208 202 217 253 223 233 221 220 218 207 231 217 214 249 217 254 246 236 260 238 265 253 251 266 265 272 269 269 278
203 213 185 186 182 190 201 200 198 200 199 200 209 210 209 172 209 223 219 218 221 213 216 211 218 220 239 240 235 243 228 225 262 265 234 244 264 267 268 260 265 277 290
203 200 211 193 182 195 197 201 201 203 169 201 208 222 234 237 228 223 209 215 214 218 218 223 228 232 229 240 252 266 271 253 237 250 258 258 269 264 261 268 274 282 291
196 190 190 190 198 204 199 203 170 173 210 234 235 229 228 225 224 227 223 226 229 215 235 224 238 241 237 230 241 241 263 265 264 254 267 266 264 268 273 271 286 286 297
211 195 195 204 204 202 203 223 243 243 197 200 216 228 228 229 229 233 229 229 216 220 213 248 231 238 242 245 244 255 260 269 272 263 262 262 264 263 270 282 281 295 306
193 202 217 208 221 226 222 220 192 205 240 240 239 233 228 234 241 229 228 241 234 237 240 237 228 240 234 242 252 259 265 263 265 262 264 261 261 273 277 282 292 299 322
207 200 197 189 216 219 226 222 224 235 240 237 234 225 225 241 220 231 227 233 239 245 251 233 239 241 241 249 251 263 266 269 258 266 264 265 276 274 282 292 302 320 410
205 210 201 215 185 213 217 222 226 224 240 239 234 222 218 219 224 229 233 239 232 239 241 240 237 232 248 246 256 264 266 266 270 262 268 277 276 283 292 306 325 405 397
191 202 211 208 213 212 209 225 220 218 225 239 234 225 219 229 239 246 245 246 241 237 238 239 233 244 246 246 264 263 266 272 269 278 269 276 281 289 308 357 411 395 374

GFSMA_2pvu_pres_093.txt.gz
Presure
151 168 165 179 181 173 177 157 195 165 186 198 210 142 193 213 191 169 177 193 176 171 173 158 127 133 152 185 192 176 213 114 199 175 129 169 147 158 117 138 205 131 140
179 142 191 150 166 147 156 184 178 189 174 185 183 154 174 186 150 191 183 193 213 122 150 207 161 168 178 174 196 206 207 187 191 128 129 172 171 203 176 150 179 219 221
188 113 163 124 129 127 203 138 155 193 206 175 171 132 135 167 192 193 183 178 171 198 197 170 174 176 187 196 205 191 213 125 127 159 196 198 142 201 208 216 217 209 224
141 172 170 163 175 175 176 159 185 182 158 158 158 191 175 186 190 126 127 126 144 180 176 132 146 180 203 207 219 124 210 201 125 196 148 200 197 216 211 208 215 218 214
121 191 153 184 179 147 162 183 168 200 197 177 168 190 176 175 146 171 162 150 175 184 145 195 191 169 210 165 200 186 149 196 202 207 208 179 207 205 215 219 217 209 222
178 135 159 170 184 177 130 129 154 165 187 181 183 182 172 181 145 192 179 139 184 162 182 184 183 205 189 206 126 202 211 210 209 206 203 203 214 217 208 200 222 208 206
185 115 123 168 163 171 187 162 176 164 184 187 166 182 169 192 180 131 176 178 166 183 165 206 207 127 178 188 208 208 209 204 199 218 215 217 211 212 206 205 203 253 243
166 151 164 164 150 187 181 188 187 181 170 171 179 179 174 168 170 185 184 196 191 155 201 180 159 217 205 209 213 214 214 226 209 202 202 205 209 253 252 242 234 233 227
189 157 188 161 177 183 175 170 177 175 169 169 182 169 174 172 178 199 173 179 188 204 182 181 229 218 210 216 223 214 209 207 207 202 209 223 237 224 219 223 228 225 226
176 195 161 150 126 175 166 182 174 170 174 168 170 171 175 170 182 167 137 197 214 193 224 208 200 211 206 220 210 223 208 226 206 203 243 250 229 222 226 228 225 222 220
175 168 183 179 169 187 178 176 169 163 178 162 183 160 183 189 171 220 205 204 226 221 206 220 211 207 205 197 194 197 201 206 246 232 229 227 228 220 220 221 221 227 228
169 164 181 168 181 176 169 174 173 173 161 169 181 166 175 185 222 192 223 220 221 217 210 225 206 210 214 206 195 212 245 163 237 228 230 225 222 221 219 228 229 230 228
169 171 164 173 173 148 170 163 166 178 168 190 170 184 207 192 204 221 191 213 220 211 229 225 213 205 200 200 221 242 210 238 222 225 221 226 227 224 226 231 229 226 226
181 166 171 172 182 174 175 176 178 167 183 169 179 171 210 207 203 223 243 213 237 237 192 208 211 211 218 177 191 227 235 226 228 227 228 227 221 231 231 222 227 237 231
171 181 178 181 167 177 176 183 179 187 211 197 223 227 236 240 240 229 231 203 222 219 214 185 190 194 216 204 241 214 230 236 227 227 231 237 235 228 228 226 235 228 230
189 173 181 216 210 200 202 205 207 226 227 195 217 228 240 233 224 220 220 207 212 184 184 203 214 221 215 237 210 230 232 239 236 225 227 228 218 224 231 222 222 239 242
190 190 230 228 226 233 238 229 222 216 220 216 225 243 218 204 210 204 220 205 201 222 180 199 225 223 208 225 213 245 240 229 227 226 225 224 226 229 229 236 241 244 232
252 246 239 231 225 221 224 231 228 217 219 220 216 207 205 202 166 192 194 177 195 184 146 176 210 221 223 196 227 239 240 236 232 220 208 223 230 235 242 242 236 238 244
237 248 248 236 239 216 222 240 226 205 214 209 210 202 201 200 195 190 193 196 206 189 194 215 199 198 223 217 226 228 239 241 241 236 228 239 240 242 246 241 244 240 245
228 228 226 217 214 208 217 221 217 206 203 198 207 198 212 197 209 200 199 190 182 195 209 209 218 222 219 218 228 228 244 242 223 225 241 245 236 234 247 245 242 242 241
212 213 206 211 206 203 196 203 203 206 211 195 192 198 204 191 203 201 183 181 216 222 218 220 223 223 221 223 227 230 239 241 230 225 230 243 242 249 243 242 247 243 243
223 220 218 206 194 194 193 192 192 192 197 199 203 194 186 199 183 183 239 218 220 220 217 221 218 222 215 223 230 229 236 227 232 246 243 254 241 245 242 247 239 242 246
200 204 204 203 207 208 209 208 206 215 221 215 209 209 205 215 209 208 190 230 227 216 219 221 221 219 223 228 232 227 231 235 249 247 262 246 239 245 240 239 245 247 253
196 197 199 202 202 200 211 209 202 203 204 205 207 208 214 204 206 197 199 209 222 220 225 215 218 224 225 230 229 230 234 249 261 257 256 246 248 241 240 246 250 253 270
195 193 192 188 187 195 202 205 208 206 203 201 204 208 215 222 213 201 205 208 225 224 215 220 226 226 230 233 233 234 248 264 262 258 243 251 246 243 251 254 255 265 256
193 189 192 193 200 208 202 204 202 207 203 194 200 204 210 216 213 202 202 220 226 218 221 225 228 226 237 238 236 239 270 260 264 249 251 248 256 259 256 260 257 263 278